     2              OBSERVATION DATA    GPS                 RINEX VERSION / TYPE
teqc 1997Sep10 19971030 21:31:11UTC                         PGM / RUN BY / DATE
                                                            COMMENT
Original Marker Name: 55474.MONU                            COMMENT
Campaign Name: NGS Imperial Valley 1990                     COMMENT
4-Character Station Name: MONU                              COMMENT
6-Character Antenna Code: TI4100                            COMMENT
Vertical Measurement Point: PAE                             COMMENT
Vertical Offset to Rinex Ref. Point: 0.0000                 COMMENT
Radial Measurement Point: RRP                               COMMENT
Radial Offset to Rinex Ref. Point: 0.0000                   COMMENT
Antenna Height from Field Measurement: 1.8170 m             COMMENT
Original XYZ: -2389886.6133 -4806314.1228 3448850.8351      COMMENT
New XYZ position is based on association with SCEC monument COMMENT
E1C8W5H0+0011. Position of that monument is believed to be  COMMENT
valid to within 1 m horizontally; vertical accuracy         COMMENT
should be no worse than 3-times this value.                 COMMENT
                                                            COMMENT
Revised Rinex header created by UCSD GPS archive for        COMMENT
GSAC on 10-Apr-1999 (1999:100) 06:39:08 GMT                 COMMENT
For assistance contact dagnew@ucsd.edu or hjohnson@ucsd.edu COMMENT
                                                            COMMENT
MONUMENT PEAK NCMN 1983                                     MARKER NAME
05 NATIONAL GEODETIC SURVEY                                 OBSERVER / AGENCY
89 TI 4100 1.9                                              REC # / TYPE / VERS
4078 TI 4100                                                ANT # / TYPE
 -2386290.0000 -4802346.0000  3444884.0000                  APPROX POSITION XYZ
        1.8170        0.0000        0.0000                  ANTENNA: DELTA H/E/N
     1     1     0                                          WAVELENGTH FACT L1/2
     4    P1    P2    L1    L2                              # / TYPES OF OBSERV
    15                                                      INTERVAL
  1990     3     9     7    56   14.000000                  TIME OF FIRST OBS
  1990     3     9     9    40   59.000000                  TIME OF LAST OBS
     0                                                      # OF SATELLITES
                                                            END OF HEADER
 90  3  9  7 56 14.0800000  0  4G 3G12G19G13
  20972395.357    20972396.987    24681280.746 9 -50295811.038 9
  20939445.857    20939445.366    51492292.480 9 -73699231.335 8
  21792364.892    21792367.077    11655915.597 9 -19374086.846 9
  20882823.522    20882826.123    75907487.988 9-128005693.799 8
 90  3  9  7 56 29.0800000  0  4G 3G12G19G13
  20969163.475    20969165.693    24664299.232 9 -50309043.377 8
  20946304.174    20946305.514    51528334.290 9 -73671146.826 8
  21791285.227    21791287.885    11650244.464 9 -19378505.899 8
  20885629.784    20885632.628    75922234.902 9-127994202.707 8
 90  3  9  7 56 44.0800000  0  4G 3G12G19G13
  20965937.983    20965939.592    24647349.058 9 -50322251.302 8
  20953181.619    20953184.240    51564478.274 9 -73642982.694 8
  21790232.371    21790235.365    11644708.068 9 -19382819.977 9
  20888438.908    20888440.792    75936995.514 9-127982700.921 8
 90  3  9  7 56 59.0800000  0  4G 3G12G19G13
  20962718.901    20962720.296    24630430.294 9 -50335434.754 8
  20960078.650    20960082.666    51600724.005 9 -73614739.276 8
  21789204.255    21789207.557    11639306.414 9 -19387029.077 9
  20891250.635    20891252.706    75951769.699 9-127971188.581 7
 90  3  9  7 57 14.0800000  0  4G 3G12G19G13
  20959504.413    20959507.703    24613542.920 9 -50348593.742 9
  20966995.109    20966999.876    51637071.278 9 -73586416.743 8
  21788202.419    21788206.186    11634039.383 9 -19391133.258 8
  20894063.421    20894066.051    75966557.613 9-127959665.523 8
 90  3  9  7 57 29.0800000  0  4G 3G12G19G13
  20956297.108    20956299.128    24596686.854 9 -50361728.332 8
  20973930.162    20973935.377    51673519.772 9 -73558015.312 9
  21787224.915    21787229.483    11628906.990 9 -19395132.526 8
  20896880.758    20896884.360    75981359.308 9-127948131.746 6
 90  3  9  7 57 44.0800000  0  4G 3G12G19G13
  20953095.941    20953097.275    24579862.205 9 -50374838.441 9
  20980884.444    20980890.520    51710069.365 9 -73529535.129 8
  21786274.341    21786277.521    11623909.336 9 -19399026.812 9
  20899699.469    20899702.170    75996174.940 9-127936587.096 9
 90  3  9  7 57 59.0800000  0  4G 3G12G19G13
  20949899.489    20949901.739    24563068.903 9 -50387924.135 9
  20987858.794    20987864.620    51746719.605 9 -73500976.516 9
  21785348.500    21785352.081    11619046.437 9 -19402816.090 8
  20902521.699    20902525.073    76011004.295 9-127925031.759 8
 90  3  9  7 58 14.0800000  0  4G 3G12G19G13
  20946709.648    20946713.476    24546307.088 9 -50400985.301 8
  20994852.687    20994857.108    51783470.158 9 -73472339.732 8
  21784449.947    21784451.876    11614318.268 9 -19406500.372 7
  20905345.676    20905349.936    76025847.470 8-127913465.659 8
 90  3  9  7 58 29.0800000  0  4G 3G12G19G13
  20943527.101    20943528.854    24529576.665 9 -50414021.988 9
  21001864.789    21001869.842    51820320.648 9 -73443625.067 9
  21783575.577    21783577.219    11609724.757 9 -19410079.744 9
  20908172.142    20908177.132    76040704.500 8-127901888.750 8
 90  3  9  7 58 44.0800000  0  4G 3G12G19G13
  20940348.722    20940351.008    24512877.154 9 -50427034.596 9
  21008895.653    21008899.801    51857270.374 9 -73414833.082 8
  21782726.934    21782729.099    11605265.551 9 -19413554.456 9
  20911001.699    20911006.575    76055574.815 8-127890301.501 9
 90  3  9  7 58 59.0800000  0  4G 3G12G19G13
  20937176.510    20937178.134    24496208.588 9 -50440023.102 8
  21015946.479    21015948.360    51894318.865 9 -73385964.119 8
  21781903.855    21781906.477    11600940.557 9 -19416924.585 9
  20913834.289    20913839.465    76070458.658 8-127878703.712 8
 90  3  9  7 59 14.0800000  0  4G 3G12G19G13
  20934010.863    20934013.788    24479570.912 9 -50452987.528 9
  21023015.506    21023016.843    51931465.760 9 -73357018.507 8
  21781106.089    21781108.718    11596749.772 9 -19420190.137 9
  20916668.693    20916674.553    76085355.854 9-127867095.524 8
 90  3  9  7 59 29.0800000  0  4G 3G12G19G13
  20930851.214    20930852.237    24462964.063 9 -50465927.923 8
  21030103.092    21030105.559    51968710.745 9 -73327996.444 8
  21780334.244    21780336.544    11592693.261 9 -19423351.071 8
  20919506.710    20919510.857    76100266.547 8-127855476.801 8
 90  3  9  7 59 44.0800000  0  4G 3G12G19G13
  20927696.588    20927697.693    24446387.754 9 -50478844.526 8
  21037209.123    21037211.447    52006053.345 9 -73298898.324 8
  21779587.561    21779590.227    11588770.814 9 -19426407.513 8
  20922346.624    20922350.999    76115190.282 9-127843847.935 8
 90  3  9  7 59 59.0800000  0  4G 3G12G19G13
  20924548.383    20924549.986    24429842.075 9 -50491737.242 8
  21044334.328    21044335.793    52043493.197 9 -73269724.433 8
  21778867.065    21778869.866    11584982.262 9 -19429359.654 8
  20925189.327    20925192.690    76130127.156 9-127832208.814 8
 90  3  9  8  0 14.0800000  0  4G 3G12G19G13
  20921405.119    20921406.836    24413326.845 9 -50504606.258 8
  21051477.734    21051478.513    52081029.916 9 -73240475.051 7
  21778171.517    21778173.860    11581327.186 9 -19432207.762 8
  20928035.390    20928038.888    76145077.105 9-127820559.511 7
 90  3  9  8  0 29.0800000  0  4G 3G12G19G13
  20918268.111    20918269.796    24396841.909 9 -50517451.663 8
  21058638.712    21058639.777    52118663.023 9 -73211150.566 8
  21777501.460    21777503.431    11577805.589 9 -19434951.872 9
  20930881.946    20930884.944    76160039.829 9-127808900.237 8
 90  3  9  8  0 44.0800000  0  4G 3G12G19G13
  20915136.426    20915138.200    24380387.389 9 -50530273.362 7
  21065818.549    21065821.188    52156392.136 9 -73181751.271 7
  21776857.081    21776858.988    11574417.735 9 -19437591.759 8
  20933731.589    20933736.064    76175015.815 9-127797230.628 8
 90  3  9  8  0 59.0800000  0  4G 3G12G19G13
  20912011.238    20912013.248    24363963.009 9 -50543071.575 8
  21073016.545    21073018.197    52194216.605 9 -73152277.685 7
  21776237.543    21776240.294    11571163.511 9 -19440127.534 8
  20936584.052    20936588.015    76190004.654 9-127785551.015 8
 90  3  9  8  1 14.0800000  0  4G 3G12G19G13
  20908891.776    20908894.370    24347568.631 9 -50555846.413 9
  21080231.726    21080234.923    52232135.956 9 -73122730.148 7
  21775644.363    21775646.033    11568042.624 9 -19442559.405 9
  20939438.857    20939442.413    76205006.231 8-127773861.479 8
 90  3  9  8  1 29.0800000  0  4G 3G12G19G13
  20905778.039    20905779.494    24331204.401 9 -50568597.755 9
  21087466.568    21087469.021    52270150.186 9 -73093108.708 8
  21775075.100    21775077.500    11565055.151 9 -19444887.317 9
  20942296.102    20942300.166    76220020.779 9-127762161.834 8
 90  3  9  8  1 44.0800000  0  4G 3G12G19G13
  20902670.140    20902671.481    24314870.283 9 -50581325.624 8
  21094718.124    21094720.691    52308259.016 9 -73063413.522 8
  21774532.030    21774534.839    11562200.987 9 -19447111.353 7
  20945156.624    20945159.894    76235048.278 8-127750452.094 8
 90  3  9  8  1 59.0800000  0  4G 3G12G19G13
  20899567.846    20899568.705    24298566.309 9 -50594030.027 8
  21101987.737    21101990.075    52346461.894 9 -73033645.078 8
  21774014.209    21774017.039    11559479.668 9 -19449231.867 8
  20948018.151    20948022.333    76250088.506 9-127738732.456 8
 90  3  9  8  2 14.0800000  0  4G 3G12G19G13
  20896469.981    20896471.064    24282292.236 9 -50606711.115 8
  21109274.564    21109277.889    52384758.339 9 -73003803.697 7
  21773521.486    21773524.073    11556891.410 9 -19451248.699 8
  20950882.902    20950885.399    76265141.648 9-127727002.735 9
 90  3  9  8  2 29.0800000  0  4G 3G12G19G13
  20893379.142    20893381.012    24266048.195 9 -50619368.809 8
  21116579.850    21116583.448    52423148.181 9 -72973889.548 8
  21773053.669    21773057.872    11554436.680 9 -19453161.485 8
  20953749.452    20953752.929    76280207.775 9-127715262.903 8
 90  3  9  8  2 44.0800000  0  4G 3G12G19G13
  20890293.018    20890295.521    24249834.152 9 -50632003.120 9
  21123902.822    21123905.662    52461630.913 9 -72943903.010 7
  21772611.779    21772614.873    11552114.795 8 -19454970.740 8
  20956618.462    20956622.777    76295286.678 9-127703513.115 8
 90  3  9  8  2 59.0800000  0  4G 3G12G19G13
  20887213.790    20887216.197    24233649.722 9 -50644614.364 8
  21131243.710    21131246.678    52500205.863 9 -72913844.613 9
  21772194.931    21772198.369    11549925.641 9 -19456676.588 9
  20959491.727    20959494.882    76310377.963 8-127691753.682 9
 90  3  9  8  3 14.0800000  0  4G 3G12G19G13
  20884139.296    20884142.236    24217494.906 9 -50657202.532 8
  21138601.110    21138605.724    52538872.697 9 -72883714.618 7
  21771804.333    21771807.105    11547869.168 9 -19458279.040 8
  20962365.585    20962368.261    76325481.834 9-127679984.437 8
 90  3  9  8  3 29.0800000  0  4G 3G12G19G13
  20881071.262    20881072.918    24201369.834 9 -50669767.511 7
  21145975.882    21145982.341    52577631.217 9 -72853513.184 9
  21771437.996    21771441.648    11545945.329 9 -19459778.128 8
  20965241.640    20965245.646    76340598.444 9-127668205.266 8
 90  3  9  8  3 44.0800000  0  4G 3G12G19G13
  20878008.469    20878009.305    24185274.343 9 -50682309.458 7
  21153368.025    21153374.928    52616481.003 9 -72823240.643 8
  21771098.596    21771101.168    11544153.991 9 -19461173.996 7
  20968121.597    20968123.379    76355727.563 9-127656416.343 8
 90  3  9  8  3 59.0800000  0  4G 3G12G19G13
  20874951.149    20874953.506    24169208.476 9 -50694828.303 9
  21160778.297    21160786.001    52655421.716 9 -72792897.235 9
  21770782.098    21770785.057    11542495.332 9 -19462466.463 8
  20971002.717    20971005.593    76370869.568 9-127644617.388 8
 90  3  9  8  4 14.0800000  0  4G 3G12G19G13
  20871899.864    20871901.062    24153172.373 9 -50707323.971 7
  21168205.183    21168213.188    52694453.044 8 -72762483.219 8
  21770490.963    21770494.293    11540969.498 9 -19463655.423 8
  20973886.252    20973888.913    76386024.483 9-127632808.376 8
 90  3  9  8  4 29.0800000  0  4G 3G12G19G13
  20868854.088    20868853.833    24137166.103 9 -50719796.401 8
  21175649.139    21175657.831    52733574.727 9 -72731998.819 8
  21770226.193    21770229.158    11539576.121 9 -19464741.174 9
  20976772.730    20976774.967    76401192.042 8-127620989.504 8
 90  3  9  8  4 44.0800000  0  4G 3G12G19G13
  20865812.762    20865815.416    24121189.332 9 -50732245.825 8
  21183111.054    21183119.044    52772786.090 9 -72701444.520 8
  21769984.818    21769989.415    11538315.027 9 -19465723.856 8
  20979661.152    20979663.470    76416372.283 8-127609160.752 8
 90  3  9  8  4 59.0800000  0  4G 3G12G19G13
  20862777.886    20862779.918    24105241.729 9 -50744672.530 7
  21190590.912    21190597.858    52812086.736 8 -72670820.645 9
  21769770.488    21769774.648    11537185.758 9 -19466603.817 8
  20982551.323    20982554.671    76431565.092 9-127597322.206 7
 90  3  9  8  5 14.0800000  0  4G 3G12G19G13
  20859749.242    20859750.755    24089323.383 9 -50757076.432 8
  21198087.555    21198093.213    52851476.335 9 -72640127.454 8
  21769581.091    21769583.120    11536188.445 9 -19467380.955 8
  20985444.842    20985448.423    76446770.419 9-127585473.919 8
 90  3  9  8  5 29.0800000  0  4G 3G12G19G13
  20856724.429    20856727.659    24073434.408 9 -50769457.443 9
  21205599.223    21205605.854    52890954.466 9 -72609365.287 9
  21769417.143    21769419.887    11535323.200 9 -19468055.190 8
  20988340.969    20988345.140    76461988.124 9-127573615.954 8
 90  3  9  8  5 44.0800000  0  4G 3G12G19G13
  20853707.583    20853709.167    24057574.687 9 -50781815.669 8
  21213129.907    21213134.807    52930520.721 9 -72578534.451 8
  21769277.879    21769280.137    11534589.856 9 -19468626.629 8
  20991238.437    20991242.798    76477218.486 9-127561748.157 8
 90  3  9  8  5 59.0800000  0  4G 3G12G19G13
  20850695.097    20850697.071    24041744.125 9 -50794151.173 9
  21220676.647    21220680.559    52970174.668 9 -72547635.277 7
  21769164.422    21769166.421    11533988.138 9 -19469095.497 8
  20994138.896    20994144.233    76492461.064 9-127549870.834 9
 90  3  9  8  6 14.0800000  0  4G 3G12G19G13
  20847687.122    20847689.883    24025942.599 9 -50806464.044 8
  21228238.797    21228243.396    53009915.866 9 -72516668.112 8
  21769074.961    21769076.459    11533518.055 9 -19469461.808 8
  20997041.898    20997047.089    76507716.007 8-127537983.887 9
 90  3  9  8  6 29.0800000  0  4G 3G12G19G13
  20844686.080    20844688.777    24010170.224 9 -50818754.198 8
  21235818.305    21235822.117    53049743.880 9 -72485633.317 8
  21769010.669    21769012.068    11533179.623 9 -19469725.534 8
  20999948.292    20999951.944    76522983.528 9-127526087.121 8
 90  3  9  8  6 44.0800000  0  4G 3G12G19G13
  20841690.955    20841692.969    23994427.081 9 -50831021.588 7
  21243414.082    21243417.207    53089658.453 9 -72454531.065 8
  21768970.003    21768972.696    11532972.572 9 -19469886.882 9
  21002856.796    21002859.093    76538263.672 8-127514180.533 8
 90  3  9  8  6 59.0800000  0  4G 3G12G19G13
  20838699.762    20838701.603    23978712.219 9 -50843266.922 8
  21251026.100    21251027.551    53129658.468 9 -72423362.243 9
  21768955.686    21768957.449    11532896.286 9 -19469946.336 9
  21005766.767    21005769.897    76553555.682 9-127502264.683 8
 90  3  9  8  7 14.0800000  0  4G 3G12G19G13
  20835714.979    20835716.774    23963025.871 9 -50855490.050 8
  21258653.357    21258655.953    53169743.700 9 -72392126.995 7
  21768965.917    21768967.287    11532950.516 9 -19469904.084 8
  21008679.428    21008682.183    76568859.615 9-127490339.548 8
 90  3  9  8  7 29.0800000  0  4G 3G12G19G13
  20832736.081    20832738.366    23947368.503 9 -50867690.591 8
  21266298.072    21266300.610    53209914.280 9 -72360825.268 7
  21769001.017    21769003.353    11533135.957 9 -19469759.602 8
  21011593.231    21011596.386    76584175.866 9-127478404.806 8
 90  3  9  8  7 44.0800000  0  4G 3G12G19G13
  20829760.977    20829763.899    23931739.986 9 -50879868.655 9
  21273958.655    21273961.265    53250169.596 9 -72329457.503 7
  21769060.257    21769064.024    11533452.204 9 -19469513.164 8
  21014509.312    21014513.143    76599504.489 9-127466460.426 9
 90  3  9  8  7 59.0800000  0  4G 3G12G19G13
  20826792.113    20826796.073    23916140.009 9 -50892024.476 8
  21281634.964    21281637.202    53290509.097 9 -72298024.146 7
  21769145.475    21769149.750    11533899.210 9 -19469164.868 9
  21017428.651    21017432.386    76614845.279 9-127454506.577 8
 90  3  9  8  8 14.0800000  0  4G 3G12G19G13
  20823829.241    20823832.074    23900568.700 9 -50904157.949 8
  21289326.885    21289329.452    53330932.412 8 -72266525.482 7
  21769255.828    21769258.293    11534476.723 9 -19468714.870 8
  21020349.977    21020354.652    76630198.372 9-127442543.131 8
 90  3  9  8  8 29.0800000  0  4G 3G12G19G13
  20820871.431    20820875.008    23885025.530 9 -50916269.516 8
  21297034.002    21297037.728    53371439.018 9 -72234961.908 7
  21769389.977    21769394.330    11535184.397 9 -19468163.430 8
  21023273.570    21023277.502    76645563.454 9-127430570.346 9
 90  3  9  8  8 44.0800000  0  4G 3G12G19G13
  20817918.904    20817922.846    23869510.803 9 -50928358.904 7
  21304757.202    21304761.744    53412028.627 9 -72203333.666 8
  21769549.882    21769553.434    11536022.343 9 -19467510.506 9
  21026199.517    21026204.915    76660940.343 9-127418588.368 8
 90  3  9  8  8 59.0800000  0  4G 3G12G19G13
  20814972.030    20814975.915    23854024.633 9 -50940426.049 8
  21312496.500    21312500.871    53452700.861 8 -72171641.038 8
  21769735.379    21769737.228    11536990.436 9 -19466756.159 9
  21029128.663    21029133.524    76676329.341 9-127406596.931 9
 90  3  9  8  9 14.0800000  0  4G 3G12G19G13
  20812031.126    20812034.331    23838566.783 9 -50952471.110 8
  21320250.995    21320256.310    53493455.558 8 -72139884.156 8
  21769944.336    21769946.958    11538088.646 9 -19465900.424 8
  21032059.288    21032064.322    76691730.537 9-127394596.010 9
 90  3  9  8  9 29.0800000  0  4G 3G12G19G13
  20809094.655    20809097.394    23823137.125 9 -50964494.217 9
  21328022.288    21328027.345    53534292.084 9 -72108063.515 8
  21770178.370    21770180.449    11539316.698 9 -19464943.514 9
  21034991.353    21034997.971    76707143.670 9-127382585.785 9
 90  3  9  8  9 44.0800000  0  4G 3G12G19G13
  20806163.903    20806165.122    23807735.749 9 -50976495.295 8
  21335808.521    21335813.606    53575210.106 9 -72076179.366 8
  21770436.701    21770439.316    11540674.836 9 -19463885.239 8
  21037927.553    21037933.158    76722568.928 9-127370566.107 9
 90  3  9  8  9 59.0800000  0  4G 3G12G19G13
  20803238.632    20803239.851    23792362.782 9 -50988474.223 8
  21343611.839    21343615.064    53616209.291 9 -72044231.968 8
  21770719.701    21770721.679    11542162.738 9 -19462725.842 8
  21040866.003    21040870.567    76738006.521 9-127358536.827 9
 90  3  9  8 10 14.0800000  0  4G 3G12G19G13
  20800318.376    20800321.130    23777018.328 9 -51000430.944 8
  21351429.279    21351432.090    53657289.350 9 -72012221.534 8
  21771027.198    21771029.248    11543780.180 9 -19461465.500 8
  21043804.878    21043810.033    76753456.369 9-127346497.981 9
 90  3  9  8 10 29.0800000  0  4G 3G12G19G13
  20797403.129    20797405.940    23761702.237 9 -51012365.553 8
  21359260.743    21359263.968    53698449.935 9 -71980148.363 7
  21771359.815    21771361.578    11545527.441 9 -19460104.015 8
  21046747.084    21046752.121    76768918.434 9-127334449.644 8
 90  3  9  8 10 44.0800000  0  4G 3G12G19G13
  20794494.109    20794496.180    23746414.474 9 -51024278.105 8
  21367108.863    21367112.732    53739690.341 8 -71948012.997 7
  21771716.679    21771718.643    11547403.983 9 -19458641.774 9
  21049691.455    21049696.627    76784392.424 9-127322391.997 9
 90  3  9  8 10 59.0800000  0  4G 3G12G19G13
  20791590.473    20791593.353    23731154.882 9 -51036168.689 9
  21374972.193    21374975.490    53781010.196 8 -71915815.713 8
  21772098.312    21772099.690    11549409.746 9 -19457078.848 8
  21052639.141    21052643.319    76799878.571 9-127310324.875 8
 90  3  9  8 11 14.0800000  0  4G 3G12G19G13
  20788691.742    20788694.990    23715923.394 9 -51048037.372 8
  21382849.475    21382854.331    53822409.162 9 -71883556.787 8
  21772504.679    21772506.350    11551544.902 9 -19455415.098 8
  21055588.698    21055592.827    76815377.182 9-127298248.042 8
 90  3  9  8 11 29.0800000  0  4G 3G12G19G13
  20785798.373    20785802.358    23700719.801 9 -51059884.331 9
  21390742.869    21390747.425    53863886.614 9 -71851236.711 9
  21772934.155    21772937.435    11553808.834 9 -19453651.011 8
  21058541.297    21058544.899    76830887.741 9-127286161.896 8
 90  3  9  8 11 44.0800000  0  4G 3G12G19G13
  20782911.347    20782914.091    23685544.317 9 -51071709.370 8
  21398651.874    21398655.972    53905442.375 9 -71818855.610 7
  21773389.667    21773392.754    11556201.558 9 -19451786.554 9
  21061495.121    21061497.805    76846410.060 9-127274066.572 8
 90  3  9  8 11 59.0800000  0  4G 3G12G19G13
  20780028.604    20780031.432    23670396.950 9 -51083512.523 8
  21406574.530    21406578.571    53947076.011 9 -71786413.839 8
  21773870.012    21773872.949    11558723.233 9 -19449821.629 8
  21064451.919    21064452.327    76861944.693 9-127261961.677 7
 90  3  9  8 12 14.0800000  0  4G 3G12G19G13
  20777152.023    20777154.770    23655277.589 9 -51095293.827 8
  21414511.682    21414516.510    53988787.082 9 -71753911.719 8
  21774374.067    21774377.269    11561373.365 9 -19447756.604 8
  21067410.008    21067411.461    76877491.482 9-127249847.297 7
 90  3  9  8 12 29.0800000  0  4G 3G12G19G13
  20774279.438    20774281.967    23640186.082 9 -51107053.442 9
  21422464.201    21422467.985    54030575.155 9 -71721349.594 9
  21774902.384    21774906.602    11564151.847 9 -19445591.552 8
  21070370.026    21070372.351    76893050.294 9-127237723.551 7
 90  3  9  8 12 44.0800000  0  4G 3G12G19G13
  20771413.253    20771416.079    23625122.318 9 -51118791.452 9
  21430430.973    21430435.314    54072439.586 9 -71688727.992 8
  21775457.323    21775458.829    11567058.338 9 -19443326.769 8
  21073332.598    21073334.719    76908621.009 9-127225590.532 8
 90  3  9  8 12 59.0800000  0  4G 3G12G19G13
  20768552.109    20768554.384    23610085.777 9 -51130508.226 8
  21438411.009    21438416.037    54114379.908 8 -71656047.244 8
  21776033.847    21776037.492    11570092.744 9 -19440962.303 8
  21076298.113    21076300.578    76924203.446 9-127213448.380 9
 90  3  9  8 13 14.0800000  0  4G 3G12G19G13
  20765696.706    20765699.578    23595076.990 9 -51142203.381 9
  21446407.486    21446411.298    54156395.791 9 -71623307.610 9
  21776635.198    21776637.384    11573254.608 9 -19438498.521 8
  21079265.293    21079267.825    76939797.673 9-127201297.054 7
 90  3  9  8 13 29.0800000  0  4G 3G12G19G13
  20762845.374    20762848.056    23580095.902 9 -51153876.951 7
  21454417.443    21454422.099    54198487.069 9 -71590509.234 8
  21777260.782    21777263.211    11576544.109 9 -19435935.269 8
  21082234.897    21082238.517    76955403.919 9-127189136.352 8
 90  3  9  8 13 44.0800000  0  4G 3G12G19G13
  20760000.159    20760003.149    23565142.526 9 -51165528.928 8
  21462440.335    21462444.862    54240653.322 9 -71557652.434 9
  21777911.192    21777915.009    11579961.404 9 -19433272.470 8
  21085206.805    21085210.100    76971022.283 9-127176966.213 6
 90  3  9  8 13 59.0800000  0  4G 3G12G19G13
  20757160.174    20757162.421    23550217.051 9 -51177159.158 9
  21470477.193    21470483.480    54282894.220 9 -71524737.469 9
  21778586.378    21778590.145    11583506.584 9 -19430509.999 9
  21088180.824    21088185.360    76986653.143 9-127164786.338 7
 90  3  9  8 14 14.0800000  0  4G 3G12G19G13
  20754325.824    20754326.492    23535319.114 9 -51188767.939 8
  21478530.406    21478535.492    54325209.097 9 -71491764.856 9
  21779284.982    21779288.069    11587179.125 9 -19427648.288 8
  21091158.842    21091160.348    77002295.890 8-127152597.191 7
 90  3  9  8 14 29.0800000  0  4G 3G12G19G13
  20751495.269    20751497.429    23520448.375 9 -51200355.528 8
  21486596.927    21486602.413    54367597.319 9 -71458735.092 9
  21780007.424    21780011.091    11590978.801 9 -19424687.521 9
  21094139.189    21094141.264    77017950.163 9-127140399.061 8
 90  3  9  8 14 44.0800000  0  4G 3G12G19G13
  20748669.686    20748671.571    23505605.010 9 -51211921.785 8
  21494676.283    21494682.013    54410058.655 8 -71425648.355 8
  21780755.601    21780759.004    11594905.290 9 -19421627.932 8
  21097119.859    21097122.241    77033616.293 8-127128191.702 7
 90  3  9  8 14 59.0800000  0  4G 3G12G19G13
  20745850.919    20745853.490    23490789.333 9 -51223466.470 9
  21502770.106    21502776.179    54452592.834 9 -71392504.848 9
  21781526.151    21781529.810    11598958.473 9 -19418469.615 9
  21100102.760    21100104.423    77049294.484 9-127115974.937 9
 90  3  9  8 15 14.0800000  0  4G 3G12G19G13
  20743037.996    20743039.856    23476001.366 9 -51234989.555 8
  21510878.624    21510883.395    54495199.624 9 -71359304.774 8
  21782321.821    21782325.259    11603138.562 9 -19415212.413 9
  21103087.450    21103093.013    77064985.113 9-127103748.482 8
 90  3  9  8 15 29.0800000  0  4G 3G12G19G13
  20740229.177    20740230.990    23461241.043 9 -51246491.103 8
  21518999.721    21519005.293    54537878.639 9 -71326048.414 7
  21783141.201    21783144.567    11607445.586 9 -19411856.300 9
  21106076.003    21106081.115    77080688.031 9-127091512.451 8
 90  3  9  8 15 44.0800000  0  4G 3G12G19G13
  20737424.507    20737426.957    23446508.198 9 -51257971.239 8
  21527134.854    21527139.925    54580629.202 9 -71292736.302 8
  21783984.584    21783988.595    11611878.989 9 -19408401.700 8
  21109065.040    21109071.776    77096402.895 9-127079267.106 8
 90  3  9  8 15 59.0800000  0  4G 3G12G19G13
  20734626.584    20734630.304    23431802.964 9 -51269429.862 8
  21535283.996    21535287.808    54623451.009 9 -71259368.663 8
  21784852.315    21784856.247    11616438.822 9 -19404848.594 9
  21112058.873    21112063.456    77112130.002 9-127067012.241 9
 90  3  9  8 16 14.0800000  0  4G 3G12G19G13
  20731834.113    20731836.588    23417125.066 9 -51280867.183 8
  21543446.317    21543452.147    54666343.710 9 -71225945.789 8
  21785744.958    21785747.981    11621125.034 9 -19401197.007 9
  21115054.628    21115058.831    77127869.383 9-127054747.785 8
 90  3  9  8 16 29.0800000  0  4G 3G12G19G13
  20729046.507    20729048.736    23402474.476 9 -51292283.225 8
  21551622.088    21551626.129    54709306.708 9 -71192468.143 9
  21786660.046    21786663.154    11625937.224 9 -19397447.259 9
  21118052.121    21118056.503    77143620.836 9-127042473.938 9
 90  3  9  8 16 44.0800000  0  4G 3G12G19G13
  20726262.829    20726265.777    23387850.746 9 -51303678.348 8
  21559810.624    21559815.166    54752339.174 9 -71158936.364 8
  21787599.888    21787603.647    11630874.681 9 -19393599.892 8
  21121051.847    21121055.782    77159383.925 9-127030191.018 9
 90  3  9  8 16 59.0800000  0  4G 3G12G19G13
  20723485.251    20723488.015    23373253.493 9 -51315052.826 8
  21568012.596    21568017.939    54795440.565 9 -71125350.891 7
  21788563.654    21788566.584    11635937.094 9 -19389655.162 8
  21124054.867    21124056.670    77175158.464 9-127017899.173 8
 90  3  9  8 17 14.0800000  0  4G 3G12G19G13
  20720712.558    20720714.948    23358683.170 9 -51326406.328 8
  21576227.517    21576232.274    54838610.646 9 -71091711.882 9
  21789550.988    21789554.734    11641124.596 9 -19385612.962 9
  21127059.232    21127061.435    77190944.614 9-127005598.272 7
 90  3  9  8 17 29.0800000  0  4G 3G12G19G13
  20717945.157    20717947.307    23344140.043 9 -51337738.632 8
  21584456.376    21584459.945    54881849.174 9 -71058019.538 8
  21790562.133    21790564.670    11646437.349 9 -19381473.173 9
  21130065.579    21130066.491    77206742.744 9-126993288.019 8
 90  3  9  8 17 44.0800000  0  4G 3G12G19G13
  20715182.860    20715184.856    23329623.758 9 -51349050.016 8
  21592696.968    21592701.352    54925155.658 9 -71024274.254 8
  21791597.081    21791599.446    11651874.934 9 -19377236.090 8
  21133071.911    21133075.371    77222552.995 9-126980968.360 8
 90  3  9  8 17 59.0800000  0  4G 3G12G19G13
  20712424.964    20712428.512    23315134.131 9 -51360340.633 9
  21600951.025    21600955.982    54968529.558 9 -70990476.419 8
  21792654.602    21792658.526    11657437.008 9 -19372902.020 9
  21136083.277    21136085.449    77238374.871 9-126968639.624 9
 90  3  9  8 18 14.0800000  0  4G 3G12G19G13
  20709671.789    20709676.818    23300671.348 9 -51371610.328 9
  21609217.717    21609221.686    55011970.533 9 -70956626.313 8
  21793736.949    21793740.394    11663123.332 9 -19368471.123 8
  21139095.799    21139099.387    77254208.629 8-126956301.636 8
 90  3  9  8 18 29.0800000  0  4G 3G12G19G13
  20706925.022    20706929.622    23286235.262 9 -51382859.228 8
  21617496.801    21617502.244    55055478.204 9 -70922724.257 8
  21794842.341    21794845.200    11668933.822 9 -19363943.489 8
  21142110.309    21142113.661    77270054.145 9-126943954.486 7
 90  3  9  8 18 44.0800000  0  4G 3G12G19G13
  20704183.302    20704186.042    23271825.879 9 -51394087.326 8
  21625788.978    21625793.935    55099052.021 9 -70888770.652 7
  21795971.680    21795974.739    11674868.182 9 -19359319.320 8
  21145127.356    21145131.874    77285911.222 9-126931598.330 7
 90  3  9  8 18 59.0800000  0  4G 3G12G19G13
  20701446.504    20701450.589    23257443.210 9 -51405294.593 8
  21634092.860    21634097.215    55142691.710 9 -70854765.707 8
  21797124.665    21797126.993    11680926.435 8 -19354598.604 9
  21148148.481    21148151.732    77301780.041 9-126919233.020 8
 90  3  9  8 19 14.0800000  0  4G 3G12G19G13
  20698714.790    20698717.698    23243087.057 9 -51416481.207 8
  21642409.605    21642414.090    55186396.787 9 -70820709.831 8
  21798301.388    21798303.288    11687108.419 8 -19349781.491 9
  21151170.693    21151174.170    77317660.751 9-126906858.453 8
 90  3  9  8 19 29.0800000  0  4G 3G12G19G13
  20695988.106    20695990.849    23228757.565 9 -51427647.048 8
  21650739.287    21650743.700    55230166.823 9 -70786603.327 8
  21799501.092    21799503.521    11693414.043 9 -19344868.016 8
  21154195.295    21154197.466    77333553.164 9-126894474.759 8
 90  3  9  8 19 44.0800000  0  4G 3G12G19G13
  20693266.254    20693269.079    23214454.627 9 -51438792.193 9
  21659080.601    21659084.127    55274001.215 9 -70752446.663 8
  21800724.335    21800726.606    11699842.982 9 -19339858.472 8
  21157222.140    21157225.012    77349457.274 9-126882081.960 8
 90  3  9  8 19 59.0800000  0  4G 3G12G19G13
  20690549.797    20690553.925    23200178.009 9 -51449916.831 7
  21667434.079    21667439.064    55317899.582 9 -70718240.159 8
  21801970.365    21801974.339    11706395.005 9 -19334752.999 8
  21160250.104    21160253.406    77365373.100 9-126869680.027 7
 90  3  9  8 20 14.0800000  0  4G 3G12G19G13
  20687838.169    20687839.732    23185927.977 9 -51461020.753 8
  21675800.821    21675804.647    55361861.629 9 -70683984.046 9
  21803241.157    21803243.758    11713070.075 8 -19329551.670 7
  21163281.285    21163283.431    77381300.744 9-126857268.889 8
 90  3  9  8 20 29.0800000  0  4G 3G12G19G13
  20685130.680    20685133.420    23171704.587 9 -51472103.914 9
  21684178.638    21684182.421    55405887.087 9 -70649678.502 9
  21804535.187    21804538.467    11719867.753 9 -19324254.790 8
  21166313.936    21166316.830    77397240.527 9-126844848.296 8
 90  3  9  8 20 44.0800000  0  4G 3G12G19G13
  20682428.615    20682432.467    23157507.641 9 -51483166.474 9
  21692568.089    21692571.157    55449975.394 9 -70615323.999 9
  21805851.790    21805855.464    11726787.977 9 -19318862.414 8
  21169350.228    21169353.827    77413192.200 9-126832418.431 8
 90  3  9  8 20 59.0800000  0  4G 3G12G19G13
  20679732.141    20679735.199    23143336.955 9 -51494208.567 8
  21700968.958    21700973.257    55494125.832 9 -70580921.081 9
  21807193.026    21807195.212    11733830.547 9 -19313374.701 8
  21172387.404    21172390.663    77429155.520 9-126819979.481 8
 90  3  9  8 21 14.0800000  0  4G 3G12G19G13
  20677039.802    20677044.105    23129192.747 9 -51505230.019 8
  21709382.777    21709386.461    55538338.118 9 -70546469.971 8
  21808555.047    21808558.399    11740995.200 9 -19307791.862 8
  21175427.378    21175430.927    77445130.568 9-126807531.399 8
 90  3  9  8 21 29.0800000  0  4G 3G12G19G13
  20674354.235    20674357.836    23115074.818 9 -51516231.014 8
  21717807.600    21717810.511    55582611.788 9 -70511971.025 8
  21809942.337    21809944.874    11748281.958 9 -19302113.880 8
  21178469.373    21178472.907    77461117.580 9-126795073.992 8
 90  3  9  8 21 44.0800000  0  4G 3G12G19G13
  20671671.951    20671675.961    23100983.284 9 -51527211.423 9
  21726243.585    21726246.753    55626946.580 9 -70477424.450 7
  21811352.716    21811355.717    11755690.297 9 -19296341.151 9
  21181515.077    21181517.745    77477116.515 9-126782607.286 8
 90  3  9  8 21 59.0800000  0  4G 3G12G19G13
  20668997.131    20668999.341    23086917.881 9 -51538171.490 8
  21734692.462    21734695.587    55671341.984 9 -70442830.656 8
  21812785.223    21812788.539    11763220.173 9 -19290473.722 9
  21184561.414    21184564.759    77493127.257 9-126770131.389 8
 90  3  9  8 22 14.0800000  0  4G 3G12G19G13
  20666324.864    20666328.129    23072878.614 9 -51549111.170 9
  21743152.700    21743155.754    55715797.369 9 -70408190.124 9
  21814241.777    21814244.435    11770871.421 9 -19284511.717 8
  21187610.224    21187613.869    77509149.600 9-126757646.425 9
 90  3  9  8 22 29.0800000  0  4G 3G12G19G13
  20663659.165    20663660.609    23058865.267 9 -51560030.661 8
  21751623.413    21751626.566    55760312.228 9 -70373503.237 9
  21815720.017    21815722.503    11778643.379 9 -19278455.653 9
  21190661.319    21190665.494    77525183.702 9-126745152.313 8
 90  3  9  8 22 44.0800000  0  4G 3G12G19G13
  20660997.552    20660999.680    23044878.121 9 -51570929.744 9
  21760105.329    21760109.027    55804886.171 9 -70338770.311 9
  21817221.494    21817224.095    11786536.120 9 -19272305.479 8
  21193715.094    21193718.124    77541229.706 9-126732648.930 9
 90  3  9  8 22 59.0800000  0  4G 3G12G19G13
  20658340.539    20658342.155    23030916.843 9 -51581808.660 8
  21768598.293    21768602.620    55849518.770 9 -70303991.697 8
  21818746.418    21818749.648    11794549.440 9 -19266061.335 8
  21196770.686    21196773.770    77557287.537 9-126720136.331 8
 90  3  9  8 23 14.0800000  0  4G 3G12G19G13
  20655688.820    20655690.905    23016981.647 9 -51592667.252 8
  21777102.303    21777106.944    55894209.775 9 -70269167.560 8
  21820295.180    21820297.588    11802683.192 9 -19259723.369 8
  21199827.731    21199832.595    77573357.105 9-126707614.601 8
 90  3  9  8 23 29.0800000  0  4G 3G12G19G13
  20653041.362    20653043.633    23003072.402 9 -51603505.621 9
  21785617.460    21785622.574    55938958.650 9 -70234298.323 8
  21821865.686    21821867.542    11810937.343 9 -19253291.566 8
  21202887.129    21202892.298    77589438.382 9-126695083.734 9
 90  3  9  8 23 44.0800000  0  4G 3G12G19G13
  20650399.713    20650402.879    22989189.045 9 -51614323.819 8
  21794144.164    21794149.221    55983764.945 9 -70199384.353 7
  21823459.450    21823461.307    11819311.272 9 -19246766.439 8
  21205949.407    21205954.244    77605531.482 9-126682543.652 9
 90  3  9  8 23 59.0800000  0  4G 3G12G19G13
  20647763.054    20647765.723    22975331.402 9 -51625121.991 7
  21802680.513    21802685.084    56028627.875 9 -70164426.232 8
  21825074.901    21825077.351    11827804.572 9 -19240148.303 8
  21209015.033    21209018.729    77621635.969 9-126669994.718 9
 90  3  9  8 24 14.0800000  0  4G 3G12G19G13
  20645131.226    20645132.860    22961499.339 9 -51635900.223 8
  21811228.152    21811233.395    56073547.256 9 -70129424.135 7
  21826713.833    21826716.648    11836417.307 9 -19233437.098 9
  21212082.512    21212085.636    77637752.140 9-126657436.664 8
 90  3  9  8 24 29.0800000  0  4G 3G12G19G13
  20642504.594    20642505.779    22947693.470 9 -51646658.050 8
  21819786.966    21819792.295    56118522.905 9 -70094378.199 8
  21828375.867    21828378.618    11845149.451 9 -19226632.835 9
  21215151.401    21215153.673    77653880.279 9-126644869.286 8
 90  3  9  8 24 44.0800000  0  4G 3G12G19G13
  20639882.578    20639883.165    22933913.350 9 -51657395.813 7
  21828355.210    21828360.382    56163554.329 9 -70059288.779 8
  21830060.846    21830064.055    11854000.843 8 -19219735.661 8
  21218222.705    21218224.790    77670020.058 9-126632292.846 8
 90  3  9  8 24 59.0800000  0  4G 3G12G19G13
  20637265.023    20637266.146    22920158.766 9 -51668113.676 9
  21836935.918    21836939.286    56208640.862 9 -70024156.436 8
  21831767.410    21831769.560    11862970.983 9 -19212745.957 8
  21221296.859    21221298.730    77686171.527 9-126619707.283 9
 90  3  9  8 25 14.0800000  0  4G 3G12G19G13
  20634652.826    20634653.248    22906430.005 9 -51678811.407 9
  21845525.826    21845529.981    56253782.181 9 -69988981.392 7
  21833497.227    21833499.770    11872059.733 9 -19205663.821 9
  21224373.003    21224375.282    77702334.840 9-126607112.507 8
 90  3  9  8 25 29.0800000  0  4G 3G12G19G13
  20632044.378    20632045.552    22892727.007 9 -51689489.073 8
  21854126.938    21854128.633    56298977.978 9 -69953763.897 8
  21835249.244    21835251.666    11881266.730 8 -19198489.552 8
  21227450.091    21227452.220    77718510.202 9-126594508.342 7
 90  3  9  8 25 44.0800000  0  4G 3G12G19G13
  20629441.264    20629443.492    22879049.835 9 -51700146.603 9
  21862736.264    21862739.761    56344227.771 9 -69918504.331 8
  21837023.269    21837026.235    11890592.045 9 -19191223.079 8
  21230530.385    21230533.672    77734697.466 9-126581894.899 8
 90  3  9  8 25 59.0800000  0  4G 3G12G19G13
  20626842.990    20626846.324    22865398.317 9 -51710784.155 9
  21871357.481    21871360.220    56389531.137 9 -69883203.014 8
  21838820.718    21838822.453    11900035.241 9 -19183864.753 7
  21233613.236    21233615.486    77750896.642 9-126569272.171 7
 90  3  9  8 26 14.0800000  0  4G 3G12G19G13
  20624250.258    20624253.066    22851772.463 9 -51721401.699 8
  21879987.598    21879991.639    56434887.432 8 -69847860.465 7
  21840639.710    21840641.516    11909595.925 9 -19176414.877 8
  21236698.719    21236700.852    77767107.755 9-126556640.151 8
 90  3  9  8 26 29.0800000  0  4G 3G12G19G13
  20621662.530    20621665.463    22838172.012 9 -51731999.462 7
  21888627.774    21888633.017    56480296.067 9 -69812477.129 7
  21842481.324    21842482.708    11919273.945 9 -19168873.580 8
  21239785.316    21239787.871    77783330.476 9-126543999.077 8
 90  3  9  8 26 44.0800000  0  4G 3G12G19G13
  20619078.422    20619082.006    22824597.207 9 -51742577.234 8
  21897278.940    21897284.126    56525756.830 9 -69777053.168 9
  21844345.268    21844347.389    11929068.954 8 -19161241.108 8
  21242873.708    21242877.296    77799564.836 9-126531348.941 8
 90  3  9  8 26 59.0800000  0  4G 3G12G19G13
  20616500.260    20616504.227    22811047.905 9 -51753135.134 9
  21905939.679    21905945.537    56571269.326 9 -69741588.899 8
  21846230.933    21846232.904    11938981.236 9 -19153517.268 8
  21245964.816    21245968.944    77815811.051 9-126518689.549 7
 90  3  9  8 27 14.0800000  0  4G 3G12G19G13
  20613927.013    20613930.593    22797524.140 9 -51763673.138 8
  21914610.276    21914616.220    56616833.118 9 -69706084.668 8
  21848139.214    21848141.593    11949010.234 9 -19145702.486 9
  21249058.231    21249062.337    77832069.175 9-126506020.889 8
 90  3  9  8 27 29.0800000  0  4G 3G12G19G13
  20611358.427    20611361.778    22784025.817 9 -51774191.306 8
  21923290.247    21923295.890    56662447.765 8 -69670540.811 9
  21850069.896    21850073.177    11959155.989 9 -19137796.729 8
  21252154.479    21252157.995    77848339.210 8-126493342.944 8
 90  3  9  8 27 44.0800000  0  4G 3G12G19G13
  20608794.427    20608797.811    22770552.958 9 -51784689.636 8
  21931979.461    21931986.063    56708112.743 9 -69634957.734 8
  21852023.001    21852025.530    11969418.033 9 -19129800.345 9
  21255253.170    21255256.980    77864621.297 9-126480655.607 7
 90  3  9  8 27 59.0800000  0  4G 3G12G19G13
  20606235.629    20606238.157    22757105.781 9 -51795167.968 8
  21940680.122    21940684.850    56753827.950 9 -69599335.511 7
  21853997.998    21854002.424    11979796.234 9 -19121713.446 8
  21258353.797    21258358.386    77880915.557 9-126467958.787 8
 90  3  9  8 28 14.0800000  0  4G 3G12G19G13
  20603681.492    20603683.974    22743684.516 9 -51805626.083 9
  21949388.453    21949394.197    56799593.172 9 -69563674.325 8
  21855994.567    21855999.021    11990291.076 8 -19113535.655 8
  21261457.961    21261460.834    77897222.107 9-126455252.386 9
 90  3  9  8 28 29.0800000  0  4G 3G12G19G13
  20601132.452    20601135.242    22730288.994 9 -51816064.156 8
  21958106.615    21958111.672    56845407.848 9 -69527974.597 8
  21858013.730    21858018.355    12000901.939 9 -19105267.459 9
  21264562.884    21264566.648    77913541.112 9-126442536.273 8
 90  3  9  8 28 44.0800000  0  4G 3G12G19G13
  20598587.992    20598591.143    22716919.074 9 -51826482.266 8
  21966835.136    21966839.849    56891271.226 9 -69492236.929 9
  21860054.707    21860059.461    12011628.012 9 -19096909.491 9
  21267670.193    21267674.575    77929872.291 9-126429810.687 9
 90  3  9  8 28 59.0800000  0  4G 3G12G19G13
  20596047.974    20596052.138    22703574.566 9 -51836880.587 8
  21975572.472    21975577.128    56937182.849 9 -69456461.642 8
  21862118.865    21862123.276    12022469.418 9 -19088461.652 8
  21270779.785    21270783.924    77946215.553 9-126417075.676 9
 90  3  9  8 29 14.0800000  0  4G 3G12G19G13
  20593514.270    20593517.171    22690255.535 9 -51847259.054 9
  21984318.908    21984322.248    56983142.382 9 -69420649.048 8
  21864203.814    21864206.967    12033425.672 9 -19079924.324 8
  21273891.730    21273896.845    77962571.080 9-126404331.094 7
 90  3  9  8 29 29.0800000  0  4G 3G12G19G13
  20590984.838    20590988.361    22676961.966 9 -51857617.679 7
  21993073.501    21993076.755    57029149.275 9 -69384799.545 8
  21866310.135    21866313.515    12044496.686 9 -19071297.562 9
  21277006.744    21277011.810    77978938.786 9-126391577.042 8
 90  3  9  8 29 44.0800000  0  4G 3G12G19G13
  20588461.355    20588462.352    22663693.809 9 -51867956.506 8
  22001837.237    22001841.049    57075203.134 8 -69348913.428 9
  21868438.770    21868441.585    12055682.168 9 -19062581.616 8
  21280124.617    21280128.771    77995318.840 9-126378813.365 9
 90  3  9  8 29 59.0800000  0  4G 3G12G19G13
  20585941.098    20585942.064    22650451.183 9 -51878275.439 9
  22010608.743    22010613.901    57121303.642 9 -69312990.990 8
  21870588.583    21870591.112    12066982.164 8 -19053776.439 9
  21283242.501    21283248.418    78011711.250 9-126366040.065 8
 90  3  9  8 30 14.0800000  0  4G 3G12G19G13
  20583425.836    20583427.459    22637234.150 9 -51888574.436 9
  22019389.922    22019394.936    57167450.282 9 -69277032.590 8
  21872760.139    21872762.496    12078396.258 9 -19044882.353 7
  21286365.264    21286369.514    78028115.913 8-126353257.220 7
 90  3  9  8 30 29.0800000  0  4G 3G12G19G13
  20580915.935    20580917.040    22624042.434 9 -51898853.690 8
  22028180.589    22028185.502    57213642.606 9 -69241038.587 9
  21874954.153    21874957.676    12089924.045 8 -19035899.682 9
  21289489.984    21289493.293    78044532.711 9-126340464.905 8
 90  3  9  8 30 44.0800000  0  4G 3G12G19G13
  20578409.930    20578411.372    22610876.034 9 -51909113.222 8
  22036978.624    22036983.509    57259880.112 9 -69205009.381 8
  21877168.779    21877172.053    12101565.408 9 -19026828.494 8
  21292616.431    21292619.658    78060961.793 8-126327663.032 8
 90  3  9  8 30 59.0800000  0  4G 3G12G19G13
  20575909.513    20575911.666    22597735.008 9 -51919352.982 8
  22045785.860    22045791.447    57306162.334 8 -69168945.335 8
  21879406.343    21879408.465    12113320.032 9 -19017669.063 8
  21295743.812    21295747.361    78077403.199 8-126314851.563 7
 90  3  9  8 31 14.0800000  0  4G 3G12G19G13
  20573413.926    20573416.136    22584619.330 9 -51929572.982 9
  22054601.024    22054606.453    57352488.975 9 -69132846.678 8
  21881664.033    21881667.493    12125187.666 9 -19008421.572 7
  21298874.896    21298878.914    78093857.076 9-126302030.379 7
 90  3  9  8 31 29.0800000  0  4G 3G12G19G13
  20570922.331    20570925.157    22571528.950 9 -51939773.272 9
  22063425.259    22063430.903    57398859.626 9 -69096713.728 8
  21883943.824    21883947.448    12137168.085 9 -18999086.197 8
  21302008.534    21302012.766    78110323.421 9-126289199.461 8
 90  3  9  8 31 44.0800000  0  4G 3G12G19G13
  20568436.005    20568438.197    22558463.798 9 -51949953.904 8
  22072258.252    22072263.710    57445273.559 8 -69060547.033 7
  21886244.442    21886248.237    12149260.847 9 -18989663.287 8
  21305144.748    21305148.708    78126801.905 9-126276359.104 8
 90  3  9  8 31 59.0800000  0  4G 3G12G19G13
  20565954.683    20565956.837    22545423.908 9 -51960114.864 8
  22081098.471    22081104.701    57491730.476 9 -69024346.871 8
  21888566.930    21888571.914    12161465.675 8 -18980153.042 9
  21308282.675    21308285.050    78143292.597 9-126263509.212 7
 90  3  9  8 32 14.0800000  0  4G 3G12G19G13
  20563476.836    20563480.202    22532409.484 9 -51970255.962 8
  22089947.175    22089953.449    57538230.316 9 -68988113.243 7
  21890912.701    21890914.929    12173782.655 8 -18970555.404 8
  21311425.056    21311426.240    78159795.963 9-126250649.454 7
 90  3  9  8 32 29.0800000  0  4G 3G12G19G13
  20561005.463    20561008.507    22519420.915 9 -51980376.932 8
  22098803.507    22098809.923    57584772.786 9 -68951846.425 9
  21893277.982    21893281.512    12186212.079 8 -18960870.163 8
  21314567.007    21314569.247    78176312.206 9-126237779.664 8
 90  3  9  8 32 44.0800000  0  4G 3G12G19G13
  20558537.997    20558541.788    22506457.861 9 -51990478.009 8
  22107668.166    22107675.583    57631357.129 9 -68915546.959 8
  21895664.762    21895667.477    12198753.553 9 -18951097.591 8
  21317713.291    21317714.962    78192841.297 9-126224899.872 7
 90  3  9  8 32 59.0800000  0  4G 3G12G19G13
  20556077.098    20556080.181    22493520.250 9 -52000559.263 8
  22116541.481    22116548.456    57677982.966 9 -68879215.149 8
  21898072.462    21898075.471    12211406.468 9 -18941238.196 8
  21320861.571    21320862.580    78209383.156 9-126212010.102 8
 90  3  9  8 33 14.0800000  0  4G 3G12G19G13
  20553620.149    20553623.264    22480608.439 9 -52010620.404 9
  22125421.280    22125428.969    57724650.199 8 -68842851.099 7
  21900502.256    21900503.991    12224170.529 9 -18931292.183 8
  21324011.625    21324012.945    78225937.995 9-126199110.236 7
 90  3  9  8 33 29.0800000  0  4G 3G12G19G13
  20551167.414    20551169.957    22467722.457 9 -52020661.436 8
  22134309.620    22134316.151    57771358.421 9 -68806455.102 8
  21902950.802    21902955.091    12237045.734 9 -18921259.576 8
  21327164.234    21327166.165    78242505.854 9-126186200.212 7
 90  3  9  8 33 44.0800000  0  4G 3G12G19G13
  20548720.850    20548723.461    22454861.836 9 -52030682.702 9
  22143206.131    22143212.805    57818106.985 9 -68770027.669 7
  21905422.200    21905425.366    12250031.677 9 -18911140.667 8
  21330319.650    21330322.337    78259086.653 9-126173280.133 7
 90  3  9  8 33 59.0800000  0  4G 3G12G19G13
  20546277.362    20546281.425    22442026.738 9 -52040684.077 8
  22152109.927    22152115.270    57864895.329 9 -68733569.249 7
  21907913.730    21907916.159    12263128.312 9 -18900935.503 8
  21333477.116    21333479.899    78275680.197 9-126160350.098 7
 90  3  9  8 34 14.0800000  0  4G 3G12G19G13
  20543839.945    20543843.808    22429216.720 9 -52050665.919 8
  22161020.675    22161027.435    57911722.709 9 -68697080.395 8
  21910427.369    21910429.855    12276334.794 9 -18890644.757 8
  21336636.951    21336638.657    78292286.559 9-126147410.076 7
 90  3  9  8 34 29.0800000  0  4G 3G12G19G13
  20541407.787    20541411.092    22416432.219 9 -52060627.868 8
  22169940.596    22169944.666    57958588.926 9 -68660561.284 8
  21912961.977    21912963.169    12289651.079 9 -18880268.444 8
  21339798.749    21339801.779    78308905.800 9-126134460.031 7
 90  3  9  8 34 44.0800000  0  4G 3G12G19G13
  20538980.203    20538982.671    22403673.127 9 -52070570.013 8
  22178866.355    22178870.482    58005493.654 9 -68624012.158 8
  21915515.339    21915518.190    12303077.265 9 -18869806.493 7
  21342962.523    21342966.332    78325537.965 9-126121499.895 6
 90  3  9  8 34 59.0800000  0  4G 3G12G19G13
  20536556.652    20536559.732    22390939.958 9 -52080491.978 9
  22187799.598    22187803.225    58052436.737 9 -68587433.138 9
  21918090.678    21918094.302    12316613.066 9 -18859259.121 8
  21346130.900    21346133.632    78342183.308 9-126108529.493 8
 90  3  9  8 35 14.0800000  0  4G 3G12G19G13
  20534139.032    20534141.056    22378232.413 9 -52090393.959 8
  22196739.696    22196743.894    58099417.827 9 -68550824.521 8
  21920688.168    21920691.935    12330258.591 9 -18848626.258 8
  21349300.840    21349303.469    78358842.024 9-126095548.685 9
 90  3  9  8 35 29.0800000  0  4G 3G12G19G13
  20531725.339    20531728.108    22365550.892 9 -52100275.659 8
  22205687.806    22205692.262    58146436.560 9 -68514186.564 9
  21923305.477    21923309.702    12344013.461 9 -18837908.188 8
  21352475.309    21352476.830    78375514.321 9-126082557.295 8
 90  3  9  8 35 44.0800000  0  4G 3G12G19G13
  20529318.075    20529319.649    22352895.415 9 -52110137.057 8
  22214642.684    22214646.067    58193492.436 9 -68477519.674 8
  21925944.536    21925947.973    12357877.217 8 -18827105.274 8
  21355650.118    21355650.752    78392200.391 9-126069555.151 8
 90  3  9  8 35 59.0800000  0  4G 3G12G19G13
  20526914.753    20526917.686    22340265.619 9 -52119978.467 9
  22223603.787    22223607.227    58240584.859 9 -68440824.295 9
  21928603.963    21928606.692    12371849.669 9 -18816217.656 9
  21358827.156    21358829.782    78408899.988 9-126056542.496 8
 90  3  9  8 36 14.0800000  0  4G 3G12G19G13
  20524516.136    20524517.831    22327661.484 9 -52129799.874 8
  22232571.430    22232576.487    58287713.285 9 -68404100.865 8
  21931283.503    21931287.190    12385930.450 9 -18805245.640 9
  21362008.089    21362010.325    78425612.859 9-126043519.479 8
 90  3  9  8 36 29.0800000  0  4G 3G12G19G13
  20522122.465    20522123.888    22315083.072 9 -52139601.226 8
  22241546.226    22241550.525    58334877.484 9 -68367349.575 9
  21933983.898    21933987.636    12400119.275 9 -18794189.417 9
  21365189.946    21365192.339    78442339.021 9-126030486.107 8
 90  3  9  8 36 44.0800000  0  4G 3G12G19G13
  20519734.100    20519734.869    22302530.377 9 -52149382.554 8
  22250528.263    22250532.261    58382077.018 9 -68330570.737 9
  21936704.347    21936708.121    12414416.019 9 -18783049.114 8
  21368375.014    21368378.492    78459078.748 9-126017442.182 8
 90  3  9  8 36 59.0800000  0  4G 3G12G19G13
  20517350.142    20517352.334    22290003.571 9 -52159143.705 8
  22259517.055    22259520.610    58429311.551 9 -68293764.625 8
  21939446.217    21939449.547    12428820.343 9 -18771824.971 8
  21371561.983    21371567.298    78475832.117 8-126004387.614 8
 90  3  9  8 37 14.0800000  0  4G 3G12G19G13
  20514970.477    20514972.354    22277502.556 9 -52168884.761 8
  22268511.456    22268515.282    58476580.510 9 -68256931.681 9
  21942207.311    21942210.885    12443331.921 9 -18760517.260 8
  21374753.823    21374757.705    78492599.203 9-125991322.371 8
 90  3  9  8 37 29.0800000  0  4G 3G12G19G13
  20512595.562    20512599.032    22265027.179 9 -52178605.839 9
  22277512.567    22277516.479    58523883.447 9 -68220072.268 9
  21944988.689    21944991.490    12457950.439 9 -18749126.216 8
  21377946.612    21377951.792    78509379.734 9-125978246.639 8
 90  3  9  8 37 44.0800000  0  4G 3G12G19G13
  20510225.956    20510229.584    22252577.509 9 -52188306.882 8
  22286519.159    22286523.829    58571220.015 9 -68183186.658 8
  21947789.492    21947793.860    12472675.581 9 -18737652.089 8
  21381143.450    21381145.801    78526173.858 8-125965160.309 7
 90  3  9  8 37 59.0800000  0  4G 3G12G19G13
  20507862.873    20507865.329    22240153.729 9 -52197987.758 9
  22295532.991    22295538.249    58618589.835 9 -68146275.123 8
  21950610.978    21950614.788    12487507.246 9 -18726094.964 8
  21384342.162    21384346.148    78542982.057 9-125952063.018 7
 90  3  9  8 38 14.0800000  0  4G 3G12G19G13
  20505503.633    20505506.051    22227755.610 9 -52207648.628 8
  22304554.622    22304557.933    58665992.125 9 -68109338.297 8
  21953452.898    21953457.044    12502444.976 9 -18714455.186 8
  21387543.039    21387546.677    78559803.853 9-125938955.137 9
 90  3  9  8 38 29.0800000  0  4G 3G12G19G13
  20503148.888    20503151.692    22215382.902 9 -52217289.698 9
  22313580.288    22313583.228    58713426.410 9 -68072376.527 8
  21956315.759    21956320.020    12517488.268 9 -18702733.158 8
  21390746.438    21390751.293    78576638.998 9-125925836.837 8
 90  3  9  8 38 44.0800000  0  4G 3G12G19G13
  20500799.583    20500802.623    22203035.890 9 -52226910.746 9
  22322612.093    22322616.649    58760892.303 9 -68035390.129 8
  21959198.840    21959202.013    12532636.902 8 -18690929.039 8
  21393952.592    21393955.965    78593487.747 9-125912707.947 8
 90  3  9  8 38 59.0800000  0  4G 3G12G19G13
  20498455.136    20498457.804    22190714.473 9 -52236511.850 9
  22331651.681    22331656.223    58808389.506 9 -67998379.339 8
  21962102.261    21962105.076    12547890.890 9 -18679042.813 8
  21397161.499    21397165.288    78610350.256 9-125899568.334 8
 90  3  9  8 39 14.0800000  0  4G 3G12G19G13
  20496115.047    20496117.440    22178419.174 9 -52246092.608 9
  22340696.050    22340700.348    58855917.821 9 -67961344.303 8
  21965025.536    21965027.836    12563250.197 9 -18667074.549 8
  21400372.733    21400376.393    78627226.961 9-125886417.646 7
 90  3  9  8 39 29.0800000  0  4G 3G12G19G13
  20493781.139    20493782.959    22166150.000 9 -52255653.004 9
  22349746.199    22349751.456    58903476.974 9 -67924285.244 8
  21967969.680    21967971.930    12578714.538 9 -18655024.429 8
  21403586.130    21403591.145    78644118.067 9-125873255.755 8
 90  3  9  8 39 44.0800000  0  4G 3G12G19G13
  20491451.220    20491453.433    22153906.871 9 -52265193.115 8
  22358802.372    22358808.288    58951066.376 9 -67887202.606 8
  21970933.522    21970934.284    12594283.490 9 -18642892.797 8
  21406803.065    21406806.954    78661023.462 8-125860082.714 8
 90  3  9  8 39 59.0800000  0  4G 3G12G19G13
  20489125.693    20489128.469    22141689.483 9 -52274713.153 9
  22367864.226    22367869.154    58998685.442 9 -67850096.862 8
  21973915.436    21973917.242    12609956.717 9 -18630679.902 8
  21410022.262    21410027.760    78677942.949 9-125846898.704 7
 90  3  9  8 40 14.0800000  0  4G 3G12G19G13
  20486806.796    20486808.841    22129497.808 8 -52284213.166 7
  22376931.847    22376938.091    59046333.607 8 -67812968.434 9
  21976917.404    21976919.110    12625733.773 9 -18618386.113 8
  21413245.640    21413249.969    78694876.457 9-125833703.770 7
 90  3  9  8 40 29.0800000  0  4G 3G12G19G13
  20484491.160    20484493.743    22117331.597 9 -52293693.330 8
  22386004.490    22386009.947    59094010.318 9 -67775817.774 9
  21979938.439    21979941.985    12641614.310 9 -18606011.688 9
  21416470.148    21416474.251    78711823.723 9-125820498.113 8
 90  3  9  8 40 44.0800000  0  4G 3G12G19G13
  20482181.449    20482182.873    22105191.220 9 -52303153.370 9
  22395081.912    22395088.185    59141715.214 9 -67738645.159 8
  21982980.516    21982983.833    12657598.183 9 -18593556.722 9
  21419698.420    21419702.047    78728785.108 9-125807281.471 8
 90  3  9  8 40 59.0800000  0  4G 3G12G19G13
  20479876.063    20479878.642    22093076.608 9 -52312593.332 9
  22404166.146    22404171.460    59189447.976 9 -67701450.816 8
  21986040.659    21986044.705    12673685.139 9 -18581021.437 9
  21422929.400    21422933.303    78745760.571 9-125794053.848 8
 90  3  9  8 41 14.0800000  0  4G 3G12G19G13
  20477575.338    20477577.999    22080987.755 9 -52322013.218 9
  22413254.830    22413260.716    59237208.007 9 -67664235.249 9
  21989121.034    21989125.702    12689874.654 8 -18568406.243 8
  21426163.109    21426166.178    78762749.995 9-125780815.349 8
 90  3  9  8 41 29.0800000  0  4G 3G12G19G13
  20475280.044    20475283.062    22068924.728 9 -52331412.976 9
  22422349.223    22422353.521    59284995.155 8 -67626998.508 8
  21992221.149    21992226.347    12706166.736 9 -18555711.116 8
  21429398.990    21429402.088    78779753.923 9-125767565.541 8
 90  3  9  8 41 44.0800000  0  4G 3G12G19G13
  20472988.688    20472991.170    22056887.709 9 -52340792.482 9
  22431446.907    22431452.050    59332809.081 9 -67589740.921 7
  21995340.918    21995346.516    12722561.217 9 -18542936.204 8
  21432636.673    21432641.192    78796772.336 9-125754304.438 8
 90  3  9  8 41 59.0800000  0  4G 3G12G19G13
  20470703.173    20470706.174    22044876.797 9 -52350151.631 9
  22440550.487    22440556.187    59380649.246 9 -67552462.879 9
  21998480.097    21998485.023    12739057.441 9 -18530082.021 8
  21435877.645    21435881.633    78813805.372 9-125741031.971 7
 90  3  9  8 42 14.0800000  0  4G 3G12G19G13
  20468421.841    20468425.221    22032891.598 9 -52359490.744 8
  22449659.418    22449663.444    59428515.140 9 -67515164.783 8
  22001639.574    22001644.435    12755655.057 9 -18517148.818 8
  21439121.592    21439125.044    78830852.567 9-125727748.451 8
 90  3  9  8 42 29.0800000  0  4G 3G12G19G13
  20466146.762    20466151.190    22020932.435 9 -52368809.568 8
  22458772.513    22458777.684    59476406.338 9 -67477846.960 8
  22004817.388    22004820.747    12772354.094 9 -18504136.584 8
  21442368.208    21442371.034    78847914.089 9-125714453.774 8
 90  3  9  8 42 44.0800000  0  4G 3G12G19G13
  20463875.807    20463879.867    22008999.228 9 -52378108.170 8
  22467890.416    22467896.017    59524322.475 9 -67440509.713 8
  22008015.320    22008018.250    12789154.187 9 -18491045.628 7
  21445618.026    21445620.516    78864990.197 9-125701147.726 9
 90  3  9  8 42 59.0800000  0  4G 3G12G19G13
  20461609.785    20461613.208    21997092.011 9 -52387386.521 9
  22477013.170    22477020.502    59572263.092 9 -67403153.392 8
  22011231.812    22011232.953    12806055.152 9 -18477876.049 8
  21448871.622    21448873.664    78882080.992 9-125687830.241 8
 90  3  9  8 43 14.0800000  0  4G 3G12G19G13
  20459349.380    20459352.009    21985210.929 9 -52396644.523 8
  22486140.875    22486148.078    59620227.805 9 -67365778.296 9
  22014467.242    22014468.655    12823056.696 9 -18464628.102 7
  21452127.560    21452129.092    78899186.598 9-125674501.203 8
 90  3  9  8 43 29.0800000  0  4G 3G12G19G13
  20457092.785    20457095.274    21973355.912 9 -52405882.200 9
  22495271.914    22495279.403    59668216.190 9 -67328384.765 8
  22017720.923    22017722.429    12840158.425 9 -18451302.091 8
  21455384.740    21455386.869    78916306.935 9-125661160.688 8
 90  3  9  8 43 44.0800000  0  4G 3G12G19G13
  20454842.668    20454845.733    21961526.973 9 -52415099.564 8
  22504408.004    22504417.167    59716227.947 9 -67290973.020 8
  22020994.652    22020995.786    12857360.104 9 -18437898.194 8
  21458645.651    21458647.723    78933442.144 9-125647808.599 9
 90  3  9  8 43 59.0800000  0  4G 3G12G19G13
  20452596.690    20452599.369    21949724.365 9 -52424296.399 9
  22513548.931    22513558.537    59764262.781 9 -67253543.294 9
  22024285.129    22024288.646    12874661.412 9 -18424416.671 8
  21461908.183    21461912.057    78950592.392 9-125634444.777 8
 90  3  9  8 44 14.0800000  0  4G 3G12G19G13
  20450355.878    20450358.381    21937947.804 9 -52433472.934 9
  22522694.096    22522703.013    59812320.002 9 -67216096.115 9
  22027595.711    22027600.079    12892062.166 8 -18410857.656 8
  21465174.567    21465178.374    78967757.582 9-125621069.320 9
 90  3  9  8 44 29.0800000  0  4G 3G12G19G13
  20448119.236    20448122.012    21926197.318 9 -52442629.163 8
  22531843.823    22531852.622    59860399.015 9 -67178631.971 9
  22030925.932    22030930.285    12909561.957 9 -18397221.483 8
  21468444.214    21468447.688    78984937.552 9-125607682.344 8
 90  3  9  8 44 44.0800000  0  4G 3G12G19G13
  20445887.174    20445891.051    21914472.698 9 -52451765.231 9
  22540998.053    22541005.589    59908499.269 9 -67141151.272 9
  22034275.370    22034279.688    12927159.989 9 -18383508.727 7
  21471716.526    21471718.783    79002132.194 9-125594283.930 9
 90  3  9  8 44 59.0800000  0  4G 3G12G19G13
  20443661.171    20443664.163    21902774.165 9 -52460880.970 9
  22550153.731    22550161.907    59956620.302 9 -67103654.377 9
  22037643.255    22037644.576    12944856.181 4 -18369719.488 1
  21474991.314    21474993.801    79019341.519 9-125580874.069 8
 90  3  9  8 45 14.0800000  0  3G 3G19G13
  20441440.895    20441442.786    21891101.674 6 -52469976.422 6
  22041029.833    22041033.447    12962650.511 7 -18355853.789 6
  21478270.645    21478271.801    79036566.151 9-125567452.288 8
 90  3  9  8 45 29.0800000  0  3G 3G19G13
  20439224.662    20439225.920    21879455.245 9 -52479051.557 8
  22044434.462    22044438.520    12980542.495 9 -18341911.984 8
  21481550.183    21481551.982    79053805.803 9-125554018.785 9
 90  3  9  8 45 44.0800000  0  4G 3G16G19G13
  20437014.146    20437015.597    21867834.848 9 -52488106.416 8
                  22577848.743   -17816045.799 1
  22047858.681    22047861.278    12998531.580 9 -18327894.522 7
  21484832.876    21484834.304    79071060.191 9-125540573.817 8
 90  3  9  8 45 59.0800000  0  4G 3G16G19G13
  20434807.300    20434809.320    21856240.378 9 -52497141.062 9
                  22587072.301   -17893073.273 1
  22051300.499    22051303.869    13016617.738 9 -18313801.425 7
  21488118.374    21488121.561    79088329.708 8-125527117.053 8
 90  3  9  8 46 14.0800000  0  4G 3G16G19G13
  20432606.486    20432606.996    21844672.198 9 -52506155.226 8
                  22597076.256   -17991309.645 1
  22054761.678    22054762.773    13034800.803 9 -18299632.808 8
  21491406.376    21491410.386    79105614.686 9-125513648.238 8
 90  3  9  8 46 29.0800000  0  4G 3G16G19G13
  20430409.248    20430412.227    21833130.300 9 -52515148.921 7
                  22606475.078   -18070185.836 1
  22058238.712    22058241.195    13053080.462 9 -18285388.919 8
  21494699.758    21494702.810    79122915.034 8-125500167.448 8
 90  3  9  8 46 44.0800000  0  4G 3G16G19G13
  20428218.293    20428220.005    21821614.702 9 -52524122.121 9
                  22634763.206   -18021140.153 1
  22061736.279    22061737.023    13071456.121 9 -18271070.239 8
  21497994.053    21497998.235    79140230.433 9-125486674.922 9
 90  3  9  8 46 59.0800000  0  4G 3G16G19G13
  20426032.592    20426034.834    21810125.642 9 -52533074.631 9
                  22664429.799   -17972088.109 1
  22065250.860    22065253.193    13089927.878 9 -18256676.682 8
  21501293.380    21501295.373    79157561.350 9-125473170.321 9
 90  3  9  8 47 14.0800000  0  4G 3G16G19G13
  20423850.841    20423853.641    21798663.189 9 -52542006.406 8
                  22694193.921   -17923029.701 1
  22068783.828    22068785.516    13108495.735 9 -18242208.235 8
  21504594.214    21504597.151    79174908.031 9-125459653.434 9
 90  3  9  8 47 29.0800000  0  4G 3G16G19G13
  20421673.898    20421675.997    21787227.569 9 -52550917.293 9
                  22724192.484   -17873964.932 1
  22072334.482    22072337.430    13127159.236 9 -18227665.270 8
  21507897.463    21507900.370    79192270.842 9-125446123.975 8
 90  3  9  8 47 44.0800000  0  4G 3G16G19G13
  20419503.393    20419504.977    21775818.926 9 -52559807.140 8
                  22753575.637   -17824893.799 1
  22075904.439    22075906.457    13145918.119 9 -18213047.966 7
  21511205.540    21511206.931    79209649.752 9-125432581.992 8
 90  3  9  8 47 59.0800000  0  4G 3G16G19G13
  20417336.839    20417339.882    21764437.014 9 -52568676.173 8
                  22784013.779   -17775816.304 1
  22079491.789    22079495.117    13164772.285 9 -18198356.426 7
  21514515.206    21514518.036    79227044.809 9-125419027.407 9
 90  3  9  8 48 14.0800000  0  4G 3G16G19G13
  20415175.521    20415178.822    21753081.913 9 -52577524.299 8
                  22813836.511   -17726732.447 1
  22083096.511    22083101.176    13183721.053 9 -18183591.173 8
  21517828.414    21517831.179    79244455.879 9-125405460.357 8
 90  3  9  8 48 29.0800000  0  4G 3G16G19G13
  20413019.555    20413022.183    21741753.603 9 -52586351.563 8
                  22843864.379   -17677642.228 1
  22086720.657    22086724.994    13202764.151 8 -18168752.389 7
  21521143.217    21521147.238    79261882.800 9-125391880.954 8
 90  3  9  8 48 44.0800000  0  4G 3G16G19G13
  20410869.914    20410871.920    21730452.055 8 -52595157.961 8
                  22873657.806   -17628545.645 1
  22090361.467    22090367.448    13221901.276 9 -18153840.352 8
  21524463.607    21524466.316    79279325.790 9-125378289.018 8
 90  3  9  8 48 59.0800000  0  4G 3G16G19G13
  20408724.530    20408728.828    21719177.187 9 -52603943.577 8
                  22903568.453   -17579442.699 1
  22094022.337    22094026.073    13241132.060 8 -18138855.331 8
  21527785.115    21527788.581    79296784.913 9-125364684.518 8
 90  3  9  8 49 14.0800000  0  4G 3G16G19G13
  20406584.415    20406587.300    21707928.941 9 -52612708.441 8
                  22933481.788   -17530333.391 1
  22097698.827    22097702.569    13260456.103 9 -18123797.635 8
  21531111.057    21531114.023    79314259.922 9-125351067.639 8
 90  3  9  8 49 29.0800000  0  4G 3G16G19G13
  20404449.325    20404451.453    21696707.395 9 -52621452.511 8
                  22963491.083   -17481217.720 1
  22101395.091    22101398.262    13279873.183 9 -18108667.458 7
  21534439.146    21534441.640    79331750.938 9-125337438.293 8
 90  3  9  8 49 44.0800000  0  4G 3G16G19G13
  20402318.866    20402320.857    21685512.891 9 -52630175.496 9
                  22993148.715   -17432095.687 1
  22105107.160    22105110.703    13299383.019 8 -18093465.003 8
  21537770.756    21537775.324    79349258.228 9-125323796.260 8
 90  3  9  8 49 59.0800000  0  4G 3G16G19G13
  20400194.197    20400196.278    21674345.470 9 -52638877.372 8
                  23023070.094   -17382967.291 1
  22108838.447    22108840.200    13318985.423 9 -18078190.403 8
  21541105.856    21541109.222    79366782.212 8-125310141.198 8
 90  3  9  8 50 14.0800000  0  4G 3G16G19G13
  20398073.260    20398075.906    21663205.188 9 -52647558.119 7
                  21859819.739   -19412545.916 1
  22112587.126    22112588.386    13338679.776 9 -18062844.172 7
  21544442.932    21544446.441    79384322.626 9-125296473.356 9
 90  3  9  8 50 29.0800000  0  3G 3G19G13
  20395958.855    20395961.018    21652091.529 9 -52656218.111 9
  22116352.282    22116352.827    13358465.680 9 -18047426.594 8
  21547783.423    21547788.474    79401879.103 8-125282793.000 8
 90  3  9  8 50 44.0800000  0  3G 3G19G13
  20393849.223    20393850.942    21641004.985 9 -52664856.979 8
  22120135.747    22120135.676    13378343.061 9 -18031937.739 7
  21551126.366    21551132.168    79419452.114 8-125269099.752 8
 90  3  9  8 50 59.0800000  0  4G 3G16G19G13
  20391744.340    20391745.974    21629945.804 9 -52673474.527 8
                  21688833.751   -19709525.069 1
  22123935.152    22123935.754    13398311.913 9 -18016377.601 7
  21554477.156    21554480.211    79437042.229 9-125255393.178 9
 90  3  9  8 51 14.0800000  0  3G 3G19G13
  20389644.777    20389647.483    21618913.855 9 -52682070.853 9
  22127752.487    22127752.474    13418371.722 9 -18000746.605 8
  21557827.871    21557831.498    79454649.366 9-125241673.345 9
 90  3  9  8 51 29.0800000  0  3G 3G19G13
  20387550.646    20387553.310    21607909.098 9 -52690645.986 8
  22131585.598    22131587.963    13438522.122 9 -17985045.013 7
  21561182.981    21561184.503    79472273.158 9-125227940.529 8
 90  3  9  8 51 44.0800000  0  4G 3G16G19G13
  20385462.220    20385464.311    21596931.865 9 -52699199.660 8
                  22379859.035   -19875540.264 7
  22135436.594    22135439.162    13458762.906 9 -17969272.979 8
  21564539.820    21564540.585    79489913.936 9-125214194.480 8
 90  3  9  8 51 59.0800000  0  4G 3G16G19G13
  20383378.825    20383380.263    21585981.980 9 -52707732.042 7
  22369100.750    22369104.907   -19931909.042 9  25333227.092 9
  22139304.067    22139307.993    13479093.850 9 -17953430.695 8
  21567899.385    21567901.881    79507571.689 9-125200435.213 9
 90  3  9  8 52 14.0800000  0  4G 3G16G19G13
  20381299.342    20381302.482    21575059.775 9 -52716242.850 8
  22358379.496    22358383.053   -19988253.107 8  25289323.129 9
  22143190.995    22143193.597    13499514.730 8 -17937518.327 7
  21571261.150    21571263.482    79525246.672 9-125186662.510 8
 90  3  9  8 52 29.0800000  0  4G 3G16G19G13
  20379226.317    20379228.488    21564165.093 9 -52724732.221 8
  22347662.454    22347666.203   -20044572.249 9  25245438.095 9
  22147092.883    22147096.508    13520025.038 9 -17921536.278 9
  21574626.203    21574630.970    79542938.878 9-125172876.400 8
 90  3  9  8 52 44.0800000  0  4G 3G16G19G13
  20377157.796    20377161.476    21553298.064 9 -52733200.039 8
  22336949.700    22336954.293   -20100866.305 9  25201572.589 9
  22151013.211    22151017.629    13540624.503 8 -17905484.767 8
  21577996.919    21577999.955    79560648.366 9-125159076.829 9
 90  3  9  8 52 59.0800000  0  4G 3G16G19G13
  20375095.949    20375099.443    21542458.695 9 -52741646.300 9
  22326242.641    22326246.393   -20157134.843 9  25157726.977 8
  22154950.796    22154954.192    13561312.609 9 -17889364.156 8
  21581372.046    21581372.450    79578375.036 9-125145263.839 8
 90  3  9  8 53 14.0800000  0  4G 3G16G19G13
  20373039.157    20373042.201    21531647.212 9 -52750070.837 8
  22315539.577    22315543.641   -20213377.340 9  25113901.654 8
  22158904.244    22158908.208    13582089.321 8 -17873174.509 8
  21584749.717    21584748.942    79596119.368 9-125131437.099 8
 90  3  9  8 53 29.0800000  0  4G 3G16G19G13
  20370986.385    20370990.479    21520863.508 9 -52758473.721 9
  22304842.403    22304847.526   -20269593.283 9  25070097.026 9
  22162874.997    22162878.913    13602954.519 9 -17856915.927 8
  21588130.202    21588129.346    79613881.254 8-125117596.668 8
 90  3  9  8 53 44.0800000  0  4G 3G16G19G13
  20368940.346    20368942.763    21510107.497 9 -52766855.025 8
  22294150.099    22294154.830   -20325782.521 9  25026313.209 9
  22166862.516    22166866.801    13623907.678 9 -17840588.790 7
  21591513.935    21591512.621    79631660.672 9-125103742.588 8
 90  3  9  8 53 59.0800000  0  4G 3G16G19G13
  20366897.971    20366901.905    21499379.085 9 -52775214.824 9
  22283462.123    22283466.736   -20381945.131 9  24982550.144 8
  22170866.946    22170870.710    13644948.152 9 -17824193.619 8
  21594898.755    21594899.683    79649457.490 9-125089874.927 8
 90  3  9  8 54 14.0800000  0  4G 3G16G19G13
  20364861.466    20364865.537    21488678.510 9 -52783552.943 9
  22272780.059    22272785.225   -20438080.573 9  24938808.255 9
  22174887.509    22174891.446    13666075.705 9 -17807730.605 9
  21598287.510    21598290.722    79667271.934 9-125075993.562 8
 90  3  9  8 54 29.0800000  0  4G 3G16G19G13
  20362831.001    20362835.666    21478005.489 9 -52791869.586 8
  22262104.309    22262107.777   -20494188.455 9  24895087.853 9
  22178924.463    22178928.418    13687289.769 9 -17791200.180 8
  21601679.710    21601684.243    79685103.804 9-125062098.606 8
 90  3  9  8 54 44.0800000  0  4G 3G16G19G13
  20360805.575    20360807.542    21467360.264 9 -52800164.541 8
  22251431.454    22251436.826   -20550268.477 9  24851389.144 9
  22182978.465    22182981.224    13708590.092 9 -17774602.526 8
  21605078.304    21605080.215    79702953.178 9-125048190.015 8
 90  3  9  8 54 59.0800000  0  4G 3G16G19G13
  20358785.043    20358787.391    21456742.887 9 -52808437.828 8
  22240764.512    22240771.029   -20606320.342 9  24807712.374 8
  22187048.717    22187049.874    13729976.516 9 -17757937.788 8
  21608478.884    21608480.367    79720820.058 9-125034267.761 7
 90  3  9  8 55 14.0800000  0  4G 3G16G19G13
  20356769.467    20356772.925    21446153.017 9 -52816689.673 9
  22230104.284    22230109.653   -20662343.768 8  24764057.779 9
  22191133.674    22191137.436    13751448.272 9 -17741206.552 8
  21611884.062    21611883.262    79738704.527 9-125020331.806 9
 90  3  9  8 55 29.0800000  0  4G 3G16G19G13
  20354760.117    20354762.906    21435590.752 9 -52824920.014 8
  22219449.259    22219454.285   -20718338.634 8  24720425.435 9
  22195234.733    22195239.113    13773005.054 9 -17724409.077 8
  21615291.490    21615289.490    79756606.445 9-125006382.275 8
 90  3  9  8 55 44.0800000  0  4G 3G16G19G13
  20352755.502    20352759.064    21425056.477 9 -52833128.534 8
  22208798.664    22208804.783   -20774304.217 9  24676815.901 9
  22199352.788    22199357.030    13794646.657 8 -17707545.492 8
  21618700.197    21618700.571    79774526.287 9-124992418.768 8
 90  3  9  8 55 59.0800000  0  4G 3G16G19G13
  20350756.258    20350758.663    21414549.821 9 -52841315.532 8
  22198155.470    22198159.579   -20830240.322 9  24633229.332 8
  22203487.421    22203491.388    13816372.814 9 -17690616.037 7
  21622112.539    21622114.200    79792463.996 9-124978441.348 7
 90  3  9  8 56 14.0800000  0  4G 3G16G19G13
  20348761.994    20348764.303    21404071.149 9 -52849480.728 8
  22187516.494    22187521.331   -20886146.610 9  24589666.000 9
  22207637.459    22207640.822    13838183.134 9 -17673620.984 8
  21625527.886    21625530.502    79810419.476 9-124964450.089 7
 90  3  9  8 56 29.0800000  0  4G 3G16G19G13
  20346773.892    20346775.383    21393620.354 9 -52857624.205 8
  22176883.688    22176888.150   -20942022.669 9  24546126.224 8
  22211804.324    22211807.456    13860077.461 9 -17656560.454 6
  21628948.883    21628951.161    79828392.879 9-124950444.847 8
 90  3  9  8 56 44.0800000  0  4G 3G16G19G13
  20344789.529    20344792.672    21383197.757 9 -52865745.728 8
  22166256.194    22166261.666   -20997868.209 9  24502610.220 8
  22215986.867    22215989.945    13882055.293 9 -17639434.884 8
  21632372.635    21632374.512    79846384.292 9-124936425.571 8
 90  3  9  8 56 59.0800000  0  4G 3G16G19G13
  20342810.781    20342813.940    21372803.052 9 -52873845.484 8
  22155636.181    22155639.829   -21053682.814 9  24459118.333 9
  22220184.910    22220187.825    13904116.067 9 -17622244.684 7
  21635799.859    21635802.670    79864393.721 9-124922392.258 8
 90  3  9  8 57 14.0800000  0  4G 3G16G19G13
  20340838.439    20340841.535    21362436.381 9 -52881923.414 8
  22145020.792    22145024.020   -21109466.217 9  24415650.765 8
  22224398.892    22224401.797    13926259.613 9 -17604989.977 7
  21639228.909    21639230.847    79882421.231 9-124908344.835 8
 90  3  9  8 57 29.0800000  0  4G 3G16G19G13
  20338870.946    20338874.650    21352097.633 9 -52889979.584 8
  22134411.505    22134414.875   -21165218.161 9  24372207.702 8
  22228628.275    22228630.271    13948485.698 9 -17587670.957 8
  21642662.680    21642666.074    79900466.817 9-124894283.345 8
 90  3  9  8 57 44.0800000  0  4G 3G16G19G13
  20336909.397    20336911.405    21341787.463 9 -52898013.476 8
  22123808.359    22123810.863   -21220937.852 9  24328789.781 8
  22232873.769    22232875.452    13970794.388 9 -17570287.572 7
  21646100.430    21646104.182    79918530.780 9-124880207.549 8
 90  3  9  8 57 59.0800000  0  4G 3G16G19G13
  20334952.889    20334955.046    21331505.724 9 -52906025.219 7
  22113209.729    22113214.832   -21276624.887 9  24285397.296 9
  22237134.130    22237137.284    13993185.181 9 -17552840.205 8
  21649541.557    21649545.761    79936613.255 9-124866117.305 7
 90  3  9  8 58 14.0800000  0  4G 3G16G19G13
  20333002.444    20333004.163    21321252.599 9 -52914014.669 8
  22102619.617    22102624.304   -21332278.918 9  24242030.531 8
  22241410.440    22241414.417    14015657.446 8 -17535329.368 8
  21652986.476    21652989.269    79954714.518 9-124852012.435 9
 90  3  9  8 58 29.0800000  0  4G 3G16G19G13
  20331056.165    20331057.972    21311028.132 9 -52921981.792 8
  22092036.103    22092039.549   -21387899.522 9  24198689.821 8
  22245701.512    22245706.057    14038210.973 9 -17517755.193 7
  21656435.062    21656438.022    79972834.483 9-124837892.990 8
 90  3  9  8 58 44.0800000  0  4G 3G16G19G13
  20329115.561    20329118.643    21300832.399 8 -52929926.531 8
  22081457.111    22081461.879   -21443486.261 9  24155375.488 8
  22250009.317    22250013.525    14060845.772 8 -17500117.704 8
  21659886.234    21659889.637    79990973.351 9-124823758.815 8
 90  3  9  8 58 59.0800000  0  4G 3G16G19G13
  20327180.603    20327183.933    21290665.241 9 -52937848.991 8
  22070885.892    22070890.316   -21499039.251 9  24112087.468 8
  22254332.363    22254336.246    14083561.206 9 -17482417.371 8
  21663341.199    21663345.117    80009130.941 9-124809610.048 8
 90  3  9  8 59 14.0800000  0  4G 3G16G19G13
  20325252.115    20325254.512    21280526.713 9 -52945749.139 8
  22060321.627    22060324.855   -21554557.924 9  24068826.176 8
  22258669.752    22258673.697    14106357.333 8 -17464654.160 7
  21666799.592    21666803.343    80027307.192 9-124795446.747 8
 90  3  9  8 59 29.0800000  0  4G 3G16G19G13
  20323328.592    20323330.267    21270416.813 9 -52953626.973 8
  22049761.375    22049766.798   -21610041.972 9  24025591.879 9
  22263023.740    22263028.212    14129233.257 9 -17446828.771 8
  21670263.242    21670265.691    80045502.350 9-124781268.708 7
 90  3  9  8 59 44.0800000  0  4G 3G16G19G13
  20321409.345    20321412.786    21260335.659 9 -52961482.428 9
  22039210.532    22039215.128   -21665490.889 8  23982384.950 9
  22267391.806    22267395.854    14152188.745 9 -17428941.380 9
  21673729.667    21673731.912    80063716.554 9-124767075.832 7
 90  3  9  8 59 59.0800000  0  4G 3G16G19G13
  20319496.893    20319500.073    21250283.522 9 -52969315.272 8
  22028665.682    22028670.647   -21720904.249 9  23939205.731 8
  22271774.763    22271778.141    14175223.645 9 -17410992.109 7
  21677199.956    21677201.490    80081949.999 9-124752867.966 8
 90  3  9  9  0 14.0800000  0  4G 3G16G19G13
  20317589.200    20317593.421    21240260.297 9 -52977125.565 8
  22018127.540    22018133.100   -21776282.033 9  23896054.238 8
  22276173.193    22276176.605    14198337.234 8 -17392981.544 8
  21680672.688    21680675.466    80100202.224 9-124738645.456 7
 90  3  9  9  0 29.0800000  0  4G 3G16G19G13
  20315688.093    20315691.513    21230265.698 8 -52984913.567 8
  22007595.448    22007600.399   -21831623.893 9  23852930.740 8
  22280587.659    22280589.596    14221529.190 8 -17374909.903 8
  21684148.638    21684151.465    80118473.535 9-124724408.090 7
 90  3  9  9  0 44.0800000  0  4G 3G16G19G13
  20313791.663    20313794.595    21220299.999 9 -52992679.046 8
  21997071.907    21997075.928   -21886929.321 8  23809835.626 8
  22285016.138    22285017.429    14244799.140 9 -17356777.484 8
  21687627.818    21687632.242    80136763.869 9-124710155.890 7
 90  3  9  9  0 59.0800000  0  4G 3G16G19G13
  20311900.433    20311903.848    21210363.568 9 -53000421.708 9
  21986554.387    21986559.634   -21942197.933 9  23766769.198 9
  22289458.539    22289460.084    14268147.233 9 -17338584.191 8
  21691111.839    21691115.681    80155073.815 9-124695888.420 6
 90  3  9  9  1 14.0800000  0  4G 3G16G19G13
  20310015.586    20310017.718    21200456.285 9 -53008141.679 8
  21976044.108    21976049.034   -21997429.312 9  23723731.768 8
  22293917.944    22293918.942    14291573.115 8 -17320330.263 7
  21694600.616    21694604.587    80173403.308 9-124681605.691 6
 90  3  9  9  1 29.0800000  0  4G 3G16G19G13
  20308134.614    20308137.834    21190578.443 9 -53015838.685 9
  21965541.757    21965545.242   -22052622.914 9  23680723.799 8
  22298389.095    22298392.735    14315076.183 8 -17302016.213 7
  21698092.798    21698095.639    80191752.391 9-124667307.712 7
 90  3  9  9  1 44.0800000  0  4G 3G16G19G13
  20306260.367    20306264.706    21180730.036 8 -53023512.770 8
  21955046.554    21955049.754   -22107778.423 9  23637745.485 9
  22302876.021    22302879.098    14338656.322 8 -17283642.084 8
  21701588.624    21701592.394    80210121.186 9-124652994.374 7
 90  3  9  9  1 59.0800000  0  4G 3G16G19G13
  20304391.877    20304395.381    21170911.201 9 -53031163.825 8
  21944559.044    21944561.304   -22162895.418 9  23594797.199 8
  22307376.790    22307379.424    14362313.150 9 -17265208.206 8
  21705087.703    21705091.639    80228509.894 9-124638665.508 7
 90  3  9  9  2 14.0800000  0  4G 3G16G19G13
  20302529.732    20302532.292    21161121.709 9 -53038791.991 9
  21934078.293    21934079.784   -22217973.871 9  23551878.939 8
  22311892.672    22311896.117    14386046.096 8 -17246715.008 8
  21708589.621    21708594.426    80246918.319 9-124624321.296 7
 90  3  9  9  2 29.0800000  0  4G 3G16G19G13
  20300671.986    20300675.335    21151361.728 9 -53046397.174 8
  21923604.319    21923606.237   -22273013.296 9  23508991.087 8
  22316423.605    22316426.261    14409854.900 9 -17228162.715 8
  21712096.531    21712100.817    80265346.605 9-124609961.592 7
 90  3  9  9  2 44.0800000  0  4G 3G16G19G13
  20298820.868    20298823.816    21141631.252 9 -53053979.360 8
  21913138.610    21913140.141   -22328013.251 9  23466133.994 9
  22320967.894    22320973.401    14433739.170 8 -17209551.597 8
  21715607.521    21715612.922    80283794.844 9-124595586.346 9
 90  3  9  9  2 59.0800000  0  4G 3G16G19G13
  20296974.006    20296978.137    21131930.683 9 -53061538.248 8
  21902680.606    21902681.679   -22382973.385 9  23423307.940 8
  22325526.948    22325531.798    14457698.831 9 -17190881.739 8
  21719123.108    21719127.402    80302263.297 9-124581195.353 8
 90  3  9  9  3 14.0800000  0  4G 3G16G19G13
  20295134.979    20295137.622    21122260.025 9 -53069073.813 8
  21892229.962    21892230.732   -22437893.041 8  23380513.419 8
  22330101.202    22330105.821    14481733.632 8 -17172153.327 8
  21722641.500    21722644.059    80320751.948 9-124566788.613 8
 90  3  9  9  3 29.0800000  0  4G 3G16G19G13
  20293300.258    20293303.017    21112619.263 9 -53076586.099 8
  21881785.991    21881788.324   -22492772.228 9  23337750.438 9
  22334688.838    22334693.485    14505843.005 8 -17153366.818 8
  21726164.226    21726166.734    80339260.698 9-124552366.220 7
 90  3  9  9  3 44.0800000  0  4G 3G16G19G13
  20291471.716    20291474.071    21103008.261 9 -53084075.183 9
  21871349.817    21871352.452   -22547610.568 9  23295019.283 8
  22339291.715    22339295.636    14530026.420 8 -17134522.589 8
  21729688.796    21729692.967    80357789.653 9-124537928.080 8
 90  3  9  9  3 59.0800000  0  4G 3G16G19G13
  20289648.341    20289651.340    21093427.126 9 -53091540.989 8
  21860922.611    21860924.583   -22602407.769 9  23252320.185 8
  22343907.129    22343912.291    14554283.565 8 -17115620.908 7
  21733217.643    21733222.244    80376338.890 9-124523474.138 7
 90  3  9  9  4 14.0800000  0  4G 3G16G19G13
  20287830.852    20287833.821    21083875.887 9 -53098983.518 7
  21850503.052    21850505.370   -22657163.694 9  23209653.242 9
  22348537.107    22348542.315    14578613.918 9 -17096662.203 7
  21736752.224    21736755.658    80394908.429 9-124509004.367 7
 90  3  9  9  4 29.0800000  0  4G 3G16G19G13
  20286018.540    20286021.329    21074354.803 9 -53106402.545 9
  21840090.047    21840093.267   -22711877.377 9  23167019.205 9
  22353180.409    22353187.941    14603017.386 9 -17077646.513 8
  21740289.561    21740292.968    80413498.629 9-124494518.510 7
 90  3  9  9  4 44.0800000  0  4G 3G16G19G13
  20284212.896    20284215.938    21064863.992 9 -53113797.981 8
  21829686.864    21829689.637   -22766548.851 9  23124418.072 9
  22357838.886    22357843.778    14627493.833 7 -17058573.963 8
  21743831.614    21743835.475    80432109.301 9-124480016.692 7
 90  3  9  9  4 59.0800000  0  4G 3G16G19G13
  20282412.485    20282416.370    21055402.859 9 -53121170.306 8
  21819291.024    21819294.347   -22821177.962 9  23081849.946 9
  22362510.431    22362515.898    14652042.389 9 -17039445.241 8
  21747376.570    21747379.739    80450740.162 9-124465499.122 8
 90  3  9  9  5 14.0800000  0  4G 3G16G19G13
  20280618.260    20280619.992    21045971.937 9 -53128519.078 8
  21808902.373    21808907.370   -22875764.160 9  23039315.253 8
  22367196.078    22367199.640    14676662.753 9 -17020260.538 9
  21750924.748    21750929.133    80469391.671 9-124450965.495 8
 90  3  9  9  5 29.0800000  0  4G 3G16G19G13
  20278828.171    20278832.314    21036571.837 9 -53135843.848 8
  21798524.214    21798527.928   -22930306.469 9  22996814.780 9
  22371896.384    22371899.457    14701355.116 9 -17001019.748 8
  21754476.409    21754483.499    80488064.317 9-124436415.386 8
 90  3  9  9  5 44.0800000  0  4G 3G16G19G13
  20277045.671    20277049.963    21027202.184 9 -53143144.875 8
  21788153.833    21788157.201   -22984805.071 9  22954348.357 7
  22376609.096    22376612.237    14726119.095 9 -16981723.128 8
  21758033.293    21758041.879    80506757.884 8-124421848.979 7
 90  3  9  9  5 59.0800000  0  4G 3G16G19G13
  20275268.826    20275272.136    21017863.296 9 -53150421.921 8
  21777790.578    21777794.870   -23039259.282 9  22911916.523 9
  22381334.706    22381337.659    14750954.138 9 -16962371.143 8
  21761596.142    21761599.917    80525472.651 9-124407266.042 7
 90  3  9  9  6 14.0800000  0  4G 3G16G19G13
  20273497.066    20273500.279    21008555.286 9 -53157674.914 7
  21767437.912    21767441.632   -23093668.814 9  22869519.514 8
  22386073.677    22386076.829    14775860.214 9 -16942963.821 8
  21765162.179    21765165.988    80544208.664 9-124392666.574 8
 90  3  9  9  6 29.0800000  0  4G 3G16G19G13
  20271731.466    20271735.042    20999278.228 9 -53164903.785 8
  21757092.680    21757095.788   -23148033.250 9  22827157.640 9
  22390825.140    22390829.257    14800836.822 9 -16923501.540 8
  21768732.351    21768736.170    80562965.961 9-124378050.508 7
 90  3  9  9  6 44.0800000  0  4G 3G16G19G13
  20269972.626    20269975.894    20990031.803 9 -53172108.782 9
  21746755.874    21746759.635   -23202352.684 9  22784830.834 9
  22395590.369    22395593.811    14825883.003 9 -16903985.036 7
  21772305.924    21772307.068    80581744.412 9-124363417.953 7
 90  3  9  9  6 59.0800000  0  4G 3G16G19G13
  20268219.137    20268223.029    20980816.020 9 -53179289.905 8
  21736428.370    21736431.172   -23256626.578 9  22742539.494 9
  22400369.673    22400373.625    14850998.772 8 -16884414.304 8
  21775883.470    21775885.194    80600544.102 9-124348768.875 7
 90  3  9  9  7 14.0800000  0  4G 3G16G19G13
  20266472.254    20266475.102    20971631.231 9 -53186446.879 8
  21726109.685    21726111.765   -23310854.396 9  22700284.090 9
  22405161.051    22405165.565    14876184.070 9 -16864789.380 8
  21779465.065    21779466.451    80619365.206 9-124334103.088 8
 90  3  9  9  7 29.0800000  0  4G 3G16G19G13
  20264729.709    20264732.729    20962477.588 9 -53193579.584 9
  21715799.208    21715801.772   -23365035.729 9  22658064.881 8
  22409967.074    22409970.761    14901438.097 9 -16845110.922 7
  21783051.574    21783054.424    80638207.946 9-124319420.461 7
 90  3  9  9  7 44.0800000  0  4G 3G16G19G13
  20262993.677    20262996.539    20953355.132 9 -53200687.992 8
  21705497.328    21705499.840   -23419170.287 9  22615882.123 9
  22414786.236    22414788.584    14926760.838 8 -16825378.926 7
  21786642.046    21786644.924    80657072.253 9-124304721.022 8
 90  3  9  9  7 59.0800000  0  4G 3G16G19G13
  20261263.202    20261265.816    20944264.006 9 -53207771.989 9
  21695204.589    21695206.755   -23473257.531 9  22573736.227 9
  22419618.169    22419619.917    14952152.057 8 -16805593.566 7
  21790235.862    21790238.860    80675958.377 9-124290004.557 8
 90  3  9  9  8 14.0800000  0  4G 3G16G19G13
  20259539.001    20259542.732    20935204.524 9 -53214831.324 8
  21684921.769    21684923.609   -23527296.987 9  22531627.600 8
  22424463.319    22424466.056    14977611.539 9 -16785755.004 7
  21793832.429    21793837.430    80694866.490 9-124275270.996 7
 90  3  9  9  8 29.0800000  0  4G 3G16G19G13
  20257820.863    20257824.165    20926176.363 9 -53221866.262 8
  21674647.397    21674649.025   -23581288.667 9  22489556.178 9
  22429321.646    22429324.146    15003138.446 9 -16765863.908 8
  21797435.317    21797438.319    80713796.419 9-124260520.400 7
 90  3  9  9  8 44.0800000  0  4G 3G16G19G13
  20256110.077    20256111.934    20917179.494 9 -53228876.803 8
  21664382.492    21664383.016   -23635232.538 8  22447522.010 8
  22434192.544    22434195.836    15028732.344 9 -16745920.616 7
  21801039.674    21801046.114    80732747.884 9-124245753.034 8
 90  3  9  9  8 59.0800000  0  4G 3G16G19G13
  20254403.560    20254406.908    20908213.861 9 -53235863.009 9
  21654126.464    21654127.285   -23689128.198 9  22405525.400 9
  22439075.787    22439076.940    15054392.889 9 -16725925.382 7
  21804650.903    21804656.860    80751721.044 9-124230968.770 7
 90  3  9  9  9 14.0800000  0  4G 3G16G19G13
  20252704.285    20252705.637    20899279.369 9 -53242824.949 8
  21643879.548    21643881.623   -23742975.146 9  22363566.744 8
  22443971.147    22443974.367    15080119.636 9 -16705878.579 7
  21808266.611    21808271.303    80770716.009 9-124216167.508 8
 90  3  9  9  9 29.0800000  0  4G 3G16G19G13
  20251008.994    20251012.926    20890376.475 9 -53249762.282 8
  21633642.008    21633643.952   -23796772.827 9  22321646.487 8
  22448879.754    22448883.030    15105912.018 9 -16685780.632 7
  21811886.704    21811888.551    80789732.931 9-124201349.135 8
 90  3  9  9  9 44.0800000  0  4G 3G16G19G13
  20249321.470    20249323.864    20881505.300 9 -53256674.882 8
  21623413.758    21623416.957   -23850520.957 9  22279764.848 8
  22453800.851    22453802.588    15131770.158 8 -16665631.424 8
  21815509.515    21815510.915    80808772.208 9-124186513.336 7
 90  3  9  9  9 59.0800000  0  4G 3G16G19G13
  20247639.551    20247642.244    20872665.981 9 -53263562.659 8
  21613195.386    21613198.325   -23904219.244 9  22237922.042 8
  22458734.275    22458736.678    15157693.677 9 -16645431.271 8
  21819136.609    21819138.600    80827833.758 9-124171660.191 8
 90  3  9  9 10 14.0800000  0  4G 3G16G19G13
  20245963.241    20245966.613    20863858.491 9 -53270425.636 9
  21602986.911    21602989.727   -23957867.319 9  22196118.384 8
  22463679.298    22463680.709    15183682.045 9 -16625180.608 8
  21822767.270    21822770.091    80846917.603 9-124156789.675 7
 90  3  9  9 10 29.0800000  0  4G 3G16G19G13
  20244292.921    20244295.407    20855082.641 9 -53277263.951 8
  21592786.941    21592790.476   -24011465.134 9  22154353.892 8
  22468636.751    22468638.637    15209734.700 9 -16604879.831 8
  21826402.759    21826407.355    80866023.650 9-124141901.857 9
 90  3  9  9 10 44.0800000  0  4G 3G16G19G13
  20242628.030    20242632.235    20846338.584 9 -53284077.499 8
  21582597.256    21582600.702   -24065012.131 9  22112628.987 9
  22473606.477    22473609.300    15235851.397 9 -16584529.162 8
  21830044.143    21830048.119    80885152.040 9-124126996.632 7
 90  3  9  9 10 59.0800000  0  4G 3G16G19G13
  20240969.780    20240974.032    20837626.371 9 -53290866.230 8
  21572417.978    21572420.865   -24118507.818 9  22070944.072 8
  22478588.074    22478590.810    15262031.689 9 -16564128.936 9
  21833688.036    21833691.831    80904302.861 9-124112073.924 9
 90  3  9  9 11 14.0800000  0  4G 3G16G19G13
  20239317.922    20239323.628    20828946.623 9 -53297629.689 8
  21562248.154    21562250.484   -24171951.831 9  22029299.411 9
  22483581.893    22483585.126    15288275.857 9 -16543678.941 9
  21837336.341    21837339.930    80923476.418 9-124097133.498 8
 90  3  9  9 11 29.0800000  0  4G 3G16G19G13
  20237673.126    20237676.884    20820299.135 9 -53304367.979 9
  21552087.477    21552090.325   -24225343.766 9  21987695.326 8
  22488588.276    22488590.998    15314583.103 9 -16523179.789 7
  21840988.552    21840993.257    80942672.589 9-124082175.478 8
 90  3  9  9 11 44.0800000  0  4G 3G16G19G13
  20236033.644    20236036.573    20811683.623 9 -53311081.366 8
  21541936.335    21541940.924   -24278683.412 9  21946131.976 9
  22493606.039    22493609.799    15340953.164 8 -16502631.685 8
  21844646.045    21844650.992    80961891.243 9-124067199.912 8
 90  3  9  9 11 59.0800000  0  4G 3G16G19G13
  20234401.186    20234403.394    20803100.754 8 -53317769.308 8
  21531796.717    21531800.023   -24331970.100 9  21904609.916 8
  22498636.147    22498639.194    15367385.684 8 -16482034.922 8
  21848306.374    21848312.055    80981132.880 9-124052206.434 8
 90  3  9  9 12 14.0800000  0  4G 3G16G19G13
  20232774.656    20232776.006    20794550.660 8 -53324431.712 8
  21521667.497    21521669.716   -24385203.582 9  21863129.286 9
  22503677.873    22503681.699    15393880.300 8 -16461389.769 7
  21851974.341    21851978.866    81000397.712 9-124037194.883 8
 90  3  9  9 12 29.0800000  0  4G 3G16G19G13
  20231153.838    20231156.550    20786032.882 9 -53331068.940 9
  21511547.464    21511549.334   -24438383.888 9  21821690.110 8
  22508731.084    22508735.580    15420436.333 8 -16440696.763 7
  21855644.079    21855648.527    81019685.375 9-124022165.535 8
 90  3  9  9 12 44.0800000  0  4G 3G16G19G13
  20229538.886    20229540.984    20777547.776 8 -53337680.717 9
  21501438.335    21501440.076   -24491510.430 9  21780292.809 8
  22513796.364    22513800.349    15447053.734 8 -16419955.925 8
  21859319.653    21859323.923    81038996.090 9-124007118.220 9
 90  3  9  9 12 59.0800000  0  4G 3G16G19G13
  20227930.378    20227932.322    20769095.781 9 -53344266.698 9
  21491338.458    21491341.488   -24544582.447 9  21738938.001 8
  22518872.302    22518876.475    15473732.132 8 -16399167.552 8
  21862997.627    21863002.823    81058330.286 9-123992052.618 7
 90  3  9  9 13 14.0800000  0  4G 3G16G19G13
  20226327.093    20226330.353    20760676.699 9 -53350827.023 8
  21481249.648    21481252.768   -24597599.711 9  21697625.857 8
  22523960.461    22523964.390    15500471.479 8 -16378331.701 8
  21866680.136    21866686.610    81077688.099 8-123976968.622 9
 90  3  9  9 13 29.0800000  0  4G 3G16G19G13
  20224731.190    20224735.765    20752290.597 9 -53357361.657 7
  21471170.749    21471174.511   -24650562.092 9  21656356.482 8
  22529060.975    22529064.364    15527271.051 9 -16357448.916 8
  21870367.494    21870374.804    81097069.378 9-123961866.333 9
 90  3  9  9 13 44.0800000  0  4G 3G16G19G13
  20223141.561    20223144.239    20743937.466 9 -53363870.589 8
  21461103.402    21461106.832   -24703469.216 9  21615130.163 8
  22534172.070    22534175.777    15554130.447 8 -16336519.521 7
  21874061.266    21874067.193    81116474.031 9-123946745.841 8
 90  3  9  9 13 59.0800000  0  4G 3G16G19G13
  20221558.433    20221561.850    20735617.657 9 -53370353.569 8
  21451045.443    21451048.833   -24756320.520 9  21573947.349 9
  22539294.475    22539297.599    15581049.620 8 -16315543.542 8
  21877758.953    21877764.580    81135902.223 9-123931606.986 8
 90  3  9  9 14 14.0800000  0  4G 3G16G19G13
  20219981.421    20219985.659    20727330.773 9 -53376810.890 8
  21440999.053    21441002.368   -24809116.124 9  21532807.929 9
  22544427.640    22544431.285    15608027.724 9 -16294521.643 7
  21881460.355    21881465.561    81155353.927 8-123916449.840 7
 90  3  9  9 14 29.0800000  0  4G 3G16G19G13
  20218411.543    20218414.224    20719077.132 8 -53383242.290 8
  21430963.120    21430966.930   -24861855.520 9  21491712.320 9
  22549572.669    22549576.069    15635064.383 9 -16273454.120 7
  21885167.019    21885171.854    81174829.116 9-123901274.390 8
 90  3  9  9 14 44.0800000  0  4G 3G16G19G13
  20216847.202    20216851.378    20710856.847 9 -53389647.715 9
  21420937.546    21420941.972   -24914538.208 9  21450660.886 9
  22554729.607    22554731.924    15662159.318 8 -16252341.193 8
  21888877.848    21888881.929    81194328.017 9-123886080.463 7
 90  3  9  9 14 59.0800000  0  4G 3G16G19G13
  20215289.343    20215292.709    20702669.677 9 -53396027.334 8
  21410923.411    21410926.921   -24967164.207 9  21409653.639 9
  22559897.060    22559898.569    15689311.910 9 -16231183.323 8
  21892593.098    21892596.745    81213850.475 9-123870868.173 7
 90  3  9  9 15 14.0800000  0  4G 3G16G19G13
  20213737.662    20213740.601    20694515.822 9 -53402380.994 9
  21400919.492    21400922.845   -25019733.097 9  21368690.886 9
  22565075.437    22565077.159    15716521.643 9 -16209980.935 8
  21896313.691    21896316.294    81233396.688 9-123855637.373 8
 90  3  9  9 15 29.0800000  0  4G 3G16G19G13
  20212192.696    20212195.427    20686395.835 9 -53408708.249 9
  21390927.201    21390930.960   -25072244.156 9  21327773.208 9
  22570265.313    22570265.986    15743788.731 9 -16188733.863 8
  21900036.682    21900040.518    81252967.241 9-123840387.617 7
 90  3  9  9 15 44.0800000  0  4G 3G16G19G13
  20210653.840    20210656.625    20678309.832 9 -53415009.036 9
  21380945.929    21380949.263   -25124696.751 9  21286901.073 9
  22575463.754    22575464.459    15771112.905 9 -16167442.291 8
  21903765.069    21903767.193    81272561.979 9-123825119.014 8
 90  3  9  9 15 59.0800000  0  4G 3G16G19G13
  20209122.389    20209124.423    20670257.877 9 -53421283.291 9
  21370975.618    21370979.657   -25177090.782 8  21246074.578 8
  22580675.261    22580675.618    15798494.004 8 -16146106.380 7
  21907499.473    21907501.623    81292181.167 9-123809831.360 7
 90  3  9  9 16 14.0800000  0  4G 3G16G19G13
  20207596.497    20207598.634    20662240.016 9 -53427530.965 9
  21361017.402    21361018.790   -25229425.754 9  21205294.096 8
  22585895.982    22585896.905    15825931.299 9 -16124726.674 7
  21911237.480    21911239.413    81311824.769 9-123794524.671 8
 90  3  9  9 16 29.0800000  0  4G 3G16G19G13
  20206076.902    20206079.290    20654256.204 9 -53433752.111 8
  21351069.690    21351072.165   -25281701.532 9  21164559.732 9
  22591127.751    22591128.519    15853424.647 9 -16103303.287 8
  21914979.051    21914982.589    81331492.784 9-123779198.956 7
 90  3  9  9 16 44.0800000  0  4G 3G16G19G13
  20204564.314    20204566.686    20646306.796 9 -53439946.451 8
  21341133.044    21341136.348   -25333917.447 9  21123872.025 9
  22596370.446    22596371.469    15880973.594 9 -16081836.597 8
  21918726.236    21918729.205    81351185.478 8-123763854.023 6
 90  3  9  9 16 59.0800000  0  4G 3G16G19G13
  20203057.478    20203061.763    20638392.048 9 -53446113.784 8
  21331208.282    21331210.400   -25386073.044 9  21083231.310 8
  22601623.397    22601624.629    15908578.074 9 -16060326.601 7
  21922478.233    21922482.128    81370903.225 8-123748489.559 9
 90  3  9  9 17 14.0800000  0  4G 3G16G19G13
  20201558.747    20201561.680    20630512.255 9 -53452253.890 9
  21321295.484    21321297.463   -25438167.971 9  21042637.868 9
  22606886.201    22606890.380    15936237.830 9 -16038773.560 8
  21926234.155    21926239.081    81390646.013 9-123733105.566 8
 90  3  9  9 17 29.0800000  0  4G 3G16G19G13
  20200065.521    20200069.113    20622667.353 9 -53458366.803 9
  21311393.781    21311394.648   -25490201.590 8  21002092.209 8
  22612159.533    22612163.224    15963952.614 9 -16017177.624 8
  21929995.770    21930001.070    81410414.073 9-123717701.869 8
 90  3  9  9 17 44.0800000  0  4G 3G16G19G13
  20198580.076    20198582.931    20614857.988 9 -53464452.022 9
  21301503.743    21301505.504   -25542173.597 9  20961594.555 9
  22617444.194    22617450.020    15991722.119 9 -15995539.064 9
  21933763.246    21933767.702    81430207.584 9-123702278.357 7
 90  3  9  9 17 59.0800000  0  4G 3G16G19G13
  20197099.745    20197104.528    20607083.555 9 -53470510.018 8
  21291626.099    21291627.916   -25594083.512 9  20921145.292 9
  22622739.076    22622744.185    16019545.841 8 -15973858.234 8
  21937534.857    21937539.348    81450026.489 9-123686835.057 8
 90  3  9  9 18 14.0800000  0  4G 3G16G19G13
  20195628.199    20195630.701    20599344.346 9 -53476540.564 9
  21281759.977    21281762.553   -25645931.321 9  20880744.418 9
  22628043.182    22628047.946    16047423.404 9 -15952135.448 8
  21941311.745    21941315.298    81469870.887 9-123671371.898 8
 90  3  9  9 18 29.0800000  0  4G 3G16G19G13
  20194161.876    20194164.094    20591640.695 9 -53482543.410 8
  21271905.713    21271907.125   -25697716.689 9  20840392.195 9
  22633357.811    22633363.809    16075353.974 9 -15930371.366 9
  21945093.330    21945097.269    81489740.719 9-123655888.910 8
 90  3  9  9 18 44.0800000  0  4G 3G16G19G13
  20192702.330    20192705.233    20583971.938 8 -53488519.054 9
  21262062.821    21262064.762   -25749439.576 9  20800088.662 8
  22638682.948    22638688.109    16103337.121 8 -15908566.320 8
  21948879.886    21948881.724    81509635.719 9-123640386.313 8
 90  3  9  9 18 59.0800000  0  4G 3G16G19G13
  20191249.758    20191251.522    20576338.190 9 -53494467.415 8
  21252232.005    21252234.523   -25801099.469 9  20759834.210 9
  22644017.683    22644022.239    16131372.450 8 -15886720.599 9
  21952671.424    21952672.629    81529556.165 9-123624863.906 8
 90  3  9  9 19 14.0800000  0  4G 3G16G19G13
  20189804.588    20189805.343    20568739.549 9 -53500388.434 8
  21242413.647    21242415.808   -25852696.383 9  20719628.834 9
  22649362.900    22649367.267    16159459.685 9 -15864834.440 7
  21956465.924    21956469.368    81549502.068 9-123609321.634 8
 90  3  9  9 19 29.0800000  0  4G 3G16G19G13
  20188364.025    20188366.351    20561175.762 9 -53506282.284 8
  21232605.783    21232609.579   -25904230.189 9  20679472.620 9
  22654716.850    22654721.959    16187597.894 9 -15842908.556 9
  21960265.845    21960269.998    81569473.089 9-123593759.819 8
 90  3  9  9 19 44.0800000  0  4G 3G16G19G13
  20186932.782    20186933.889    20553647.018 8 -53512148.816 8
  21222811.494    21222815.414   -25955700.515 9  20639365.896 8
  22660081.980    22660085.693    16215786.815 8 -15820943.161 8
  21964069.952    21964073.335    81589469.304 9-123578178.373 8
 90  3  9  9 19 59.0800000  0  4G 3G16G19G13
  20185506.348    20185507.808    20546154.007 9 -53517987.527 9
  21213028.557    21213032.134   -26007106.494 9  20599309.296 9
  22665454.767    22665460.833    16244026.552 8 -15798938.168 8
  21967880.455    21967884.520    81609491.302 9-123562576.844 8
 90  3  9  9 20 14.0800000  0  4G 3G16G19G13
  20184087.828    20184088.578    20538697.246 9 -53523797.985 8
  21203259.080    21203261.783   -26058447.309 9  20559303.467 9
  22670838.169    22670842.121    16272316.915 8 -15776893.734 8
  21971695.532    21971698.715    81629539.449 9-123546954.934 8
 90  3  9  9 20 29.0800000  0  4G 3G16G19G13
  20182675.696    20182677.652    20531276.353 9 -53529580.502 9
  21193502.185    21193505.389   -26109722.904 9  20519348.470 9
  22676231.519    22676235.115    16300657.596 8 -15754810.090 8
  21975515.666    21975519.710    81649613.595 9-123531312.749 8
 90  3  9  9 20 44.0800000  0  4G 3G16G19G13
  20181269.544    20181272.547    20523891.593 9 -53535334.868 8
  21183757.510    21183759.361   -26160932.862 9  20479444.602 8
  22681633.973    22681638.260    16329048.325 8 -15732687.455 8
  21979341.623    21979344.328    81669713.849 9-123515650.215 8
 90  3  9  9 20 59.0800000  0  4G 3G16G19G13
  20179871.123    20179873.139    20516542.821 9 -53541061.192 9
  21174024.264    21174026.964   -26212077.190 9  20439591.891 9
  22687046.508    22687050.221    16357488.279 9 -15710526.452 8
  21983169.707    21983174.853    81689840.262 9-123499967.323 8
 90  3  9  9 21 14.0800000  0  4G 3G16G19G13
  20178480.028    20178480.779    20509229.844 9 -53546759.616 8
  21164303.944    21164306.543   -26263155.737 9  20399790.433 9
  22692467.228    22692469.600    16385976.868 8 -15688327.566 7
  21987004.734    21987010.398    81709992.636 8-123484264.192 8
 90  3  9  9 21 29.0800000  0  4G 3G16G19G13
  20177094.882    20177097.563    20501952.964 9 -53552429.916 9
  21154596.376    21154597.923   -26314168.113 9  20360040.556 8
  22697898.388    22697900.797    16414513.909 8 -15666090.902 8
  21990844.402    21990848.913    81730170.926 9-123468540.880 8
 90  3  9  9 21 44.0800000  0  4G 3G16G19G13
  20175716.662    20175720.541    20494712.301 9 -53558071.990 8
  21144901.480    21144904.462   -26365113.575 9  20320342.810 9
  22703338.090    22703338.862    16443099.058 7 -15643816.771 6
  21994690.504    21994692.735    81750375.612 9-123452796.981 8
 90  3  9  9 21 59.0800000  0  4G 3G16G19G13
  20174346.038    20174348.857    20487508.035 9 -53563685.706 8
  21135219.966    21135221.989   -26415992.028 9  20280697.288 8
  22708785.269    22708788.082    16471731.918 8 -15621505.451 7
  21998540.896    21998543.790    81770606.575 8-123437032.613 8
 90  3  9  9 22 14.0800000  0  4G 3G16G19G13
  20172981.995    20172984.280    20480340.504 9 -53569270.794 8
  21125551.531    21125552.428   -26466802.780 9  20241104.507 8
  22714243.526    22714245.676    16500412.512 8 -15599156.932 8
  22002395.048    22002397.284    81790864.034 8-123421247.589 8
 90  3  9  9 22 29.0800000  0  4G 3G16G19G13
  20171625.320    20171627.707    20473209.973 9 -53574827.054 9
  21115895.458    21115896.704   -26517545.406 9  20201564.802 8
  22719711.011    22719712.233    16529140.376 9 -15576771.587 7
  22006254.821    22006259.553    81811148.479 8-123405441.541 9
 90  3  9  9 22 44.0800000  0  4G 3G16G19G13
  20170274.569    20170279.301    20466116.376 9 -53580354.529 8
  21106252.675    21106253.748   -26568219.510 9  20162078.483 8
  22725186.033    22725188.933    16557915.520 9 -15554349.394 9
  22010119.522    22010124.019    81831459.962 8-123389614.431 8
 90  3  9  9 22 59.0800000  0  4G 3G16G19G13
  20168931.072    20168935.144    20459059.906 9 -53585853.072 9
  21096622.932    21096623.481   -26618824.944 9  20122645.683 8
  22730670.718    22730673.194    16586737.384 9 -15531890.820 7
  22013989.876    22013994.621    81851798.321 8-123373766.379 8
 90  3  9  9 23 14.0800000  0  4G 3G16G19G13
  20167594.179    20167598.817    20452040.493 8 -53591322.738 8
  21087006.143    21087007.512   -26669361.292 9  20083266.716 7
  22736165.565    22736167.489    16615605.217 8 -15509396.397 8
  22017867.094    22017868.875    81872163.668 9-123357897.283 7
 90  3  9  9 23 29.0800000  0  4G 3G16G19G13
  20166264.983    20166270.413    20445058.303 9 -53596763.403 8
  21077402.978    21077403.960   -26719828.365 9  20043941.734 9
  22741667.163    22741669.717    16644518.654 8 -15486866.451 8
  22021746.726    22021749.551    81892556.109 9-123342007.098 8
 90  3  9  9 23 44.0800000  0  4G 3G16G19G13
  20164944.724    20164949.318    20438113.200 8 -53602175.159 9
  21067812.623    21067814.359   -26770225.741 9  20004671.053 8
  22747177.066    22747180.410    16673477.404 8 -15464301.216 8
  22025632.066    22025635.081    81912975.547 9-123326095.859 8
 90  3  9  9 23 59.0800000  0  4G 3G16G19G13
  20163631.417    20163634.422    20431205.818 9 -53607557.534 9
  21058235.481    21058236.405   -26820553.040 9  19965454.993 8
  22752697.250    22752700.214    16702481.247 8 -15441700.824 9
  22029522.152    22029527.461    81933422.443 9-123310163.255 8
 90  3  9  9 24 14.0800000  0  4G 3G16G19G13
  20162324.494    20162327.692    20424335.987 9 -53612910.627 9
  21048672.799    21048674.716   -26870809.681 9  19926293.988 9
  22758225.346    22758227.476    16731529.764 8 -15419065.621 8
  22033419.023    22033422.389    81953896.837 9-123294209.208 8
 90  3  9  9 24 29.0800000  0  4G 3G16G19G13
  20161025.325    20161027.409    20417503.751 9 -53618234.438 9
  21039123.120    21039124.691   -26920995.786 9  19887187.946 8
  22763760.618    22763764.051    16760622.374 9 -15396396.058 8
  22037320.619    22037323.333    81974398.357 9-123278234.027 8
 90  3  9  9 24 44.0800000  0  4G 3G16G19G13
  20159730.986    20159734.736    20410709.020 9 -53623529.028 8
  21029585.509    21029588.185   -26971111.061 8  19848137.101 9
  22769305.297    22769307.228    16789758.678 8 -15373692.456 7
  22041226.253    22041230.355    81994927.135 9-123262237.588 7
 90  3  9  9 24 59.0800000  0  4G 3G16G19G13
  20158446.425    20158449.218    20403951.668 9 -53628794.485 8
  21020062.504    21020064.622   -27021155.394 9  19809141.547 9
  22774858.309    22774860.424    16818937.995 9 -15350955.319 7
  22045139.064    22045142.304    82015483.133 9-123246219.938 9
 90  3  9  9 25 14.0800000  0  4G 3G16G19G13
  20157166.030    20157169.913    20397232.061 9 -53634030.563 9
  21010553.015    21010554.952   -27071128.038 9  19770201.825 9
  22780418.573    22780420.861    16848160.042 9 -15328184.895 8
  22049056.990    22049058.507    82036066.525 9-123230180.959 8
 90  3  9  9 25 29.0800000  0  4G 3G16G19G13
  20155894.957    20155898.177    20390550.490 8 -53639236.983 8
  21001057.120    21001059.552   -27121028.709 9  19731318.212 9
  22785987.122    22785989.677    16877424.616 9 -15305381.332 8
  22052979.503    22052981.012    82056677.508 9-123214120.470 8
 90  3  9  9 25 44.0800000  0  4G 3G16G19G13
  20154630.830    20154633.291    20383907.183 9 -53644413.586 8
  20991574.628    20991576.818   -27170856.936 9  19692491.039 9
  22791564.629    22791567.715    16906731.651 9 -15282544.704 7
  22056906.898    22056908.416    82077316.367 9-123198038.270 8
 90  3  9  9 25 59.0800000  0  4G 3G16G19G13
  20153373.988    20153376.000    20377301.935 9 -53649560.538 8
  20982106.579    20982108.878   -27220612.366 9  19653720.580 8
  22797149.104    22797151.286    16936080.447 9 -15259675.505 7
  22060839.379    22060842.173    82097982.934 9-123181934.455 8
 90  3  9  9 26 14.0800000  0  4G 3G16G19G13
  20152123.770    20152127.450    20370734.680 9 -53654677.874 8
  20972652.914    20972654.612   -27270294.946 9  19615006.901 9
  22802741.813    22802745.913    16965470.574 8 -15236774.122 7
  22064776.184    22064778.540    82118676.859 9-123165809.330 8
 90  3  9  9 26 29.0800000  0  4G 3G16G19G13
  20150882.149    20150884.723    20364205.942 9 -53659765.199 9
  20963212.730    20963214.081   -27319903.960 9  19576350.532 9
  22808341.983    22808346.337    16994901.864 9 -15213840.649 7
  22068719.156    22068722.170    82139398.870 9-123149662.316 8
 90  3  9  9 26 44.0800000  0  4G 3G16G19G13
  20149646.468    20149649.298    20357716.463 9 -53664821.935 8
  20953786.387    20953788.338   -27369438.908 9  19537751.891 8
  22813950.713    22813954.098    17024374.242 8 -15190875.152 8
  22072667.941    22072671.427    82160149.510 9-123133493.002 8
 90  3  9  9 26 59.0800000  0  4G 3G16G19G13
  20148418.818    20148421.856    20351266.036 9 -53669848.250 7
  20944374.449    20944376.834   -27418899.021 9  19499211.546 9
  22819566.701    22819571.976    17053887.493 8 -15167877.823 7
  22076622.175    22076626.506    82180928.835 9-123117301.321 8
 90  3  9  9 27 14.0800000  0  4G 3G16G19G13
  20147199.886    20147202.653    20344854.463 8 -53674844.271 9
  20934976.677    20934978.328   -27468284.577 9  19460729.308 9
  22825191.424    22825193.709    17083440.926 9 -15144849.173 8
  22080581.892    22080584.857    82201736.388 9-123101087.643 8
 90  3  9  9 27 29.0800000  0  4G 3G16G19G13
  20145987.134    20145989.434    20338481.816 9 -53679809.964 8
  20925594.531    20925596.138   -27517595.434 9  19422305.282 8
  22830822.595    22830825.319    17113033.860 9 -15121789.737 8
  22084547.126    22084551.131    82222572.142 9-123084851.972 9
 90  3  9  9 27 44.0800000  0  4G 3G16G19G13
  20144781.568    20144784.673    20332148.421 8 -53684745.068 8
  20916224.976    20916226.026   -27566830.939 9  19383939.972 9
  22836461.104    22836465.027    17142666.035 8 -15098699.722 8
  22088516.159    22088520.632    82243436.733 9-123068593.872 9
 90  3  9  9 27 59.0800000  0  4G 3G16G19G13
  20143583.754    20143587.594    20325854.395 8 -53689649.503 8
  20906869.760    20906873.075   -27615990.530 9  19345633.824 9
  22842107.279    22842111.776    17172337.587 8 -15075579.033 7
  22092490.657    22092497.248    82264330.250 8-123052313.237 8
 90  3  9  9 28 14.0800000  0  4G 3G16G19G13
  20142393.614    20142396.473    20319600.050 8 -53694523.014 9
  20897529.263    20897531.900   -27665074.088 9  19307386.910 9
  22847760.711    22847764.293    17202048.217 9 -15052427.889 7
  22096471.829    22096478.025    82285252.566 9-123036010.143 8
 90  3  9  9 28 29.0800000  0  4G 3G16G19G13
  20141211.110    20141214.474    20313385.505 9 -53699365.501 8
  20888203.552    20888205.540   -27714080.996 9  19269199.712 9
  22853422.229    22853424.350    17231797.473 9 -15029246.658 7
  22100459.927    22100464.218    82306203.931 9-123019684.423 8
 90  3  9  9 28 44.0800000  0  4G 3G16G19G13
  20140036.097    20140038.778    20307211.119 9 -53704176.706 9
  20878892.073    20878894.497   -27763010.789 9  19231072.618 8
  22859089.358    22859092.841    17261584.970 8 -15006035.618 8
  22104452.188    22104455.166    82327184.546 9-123003335.894 8
 90  3  9  9 28 59.0800000  0  4G 3G16G19G13
  20138869.583    20138872.346    20301076.696 9 -53708956.771 9
  20869595.429    20869598.038   -27811863.238 8  19193005.796 8
  22864766.312    22864768.524    17291410.454 9 -14982794.969 7
  22108451.697    22108453.406    82348194.574 9-122986964.459 7
 90  3  9  9 29 14.0800000  0  4G 3G16G19G13
  20137709.807    20137712.183    20294982.342 9 -53713705.616 8
  20860313.066    20860315.827   -27860638.224 9  19154999.323 9
  22870447.595    22870452.286    17321273.312 9 -14959525.220 7
  22112454.894    22112455.550    82369233.845 9-122970570.236 8
 90  3  9  9 29 29.0800000  0  4G 3G16G19G13
  20136558.330    20136559.637    20288927.885 9 -53718423.370 9
  20851046.299    20851049.180   -27909335.640 9  19117053.291 8
  22876137.649    22876141.617    17351172.972 9 -14936226.784 7
  22116463.095    22116465.918    82390302.044 9-122954153.473 8
 90  3  9  9 29 44.0800000  0  4G 3G16G19G13
  20135414.346    20135416.453    20282913.635 9 -53723109.785 9
  20841794.147    20841797.009   -27957954.903 9  19079168.167 8
  22881834.500    22881837.792    17381109.105 8 -14912899.930 7
  22120479.088    22120481.495    82411399.482 9-122937713.938 8
 90  3  9  9 29 59.0800000  0  4G 3G16G19G13
  20134276.247    20134278.844    20276939.508 9 -53727764.936 9
  20832556.684    20832559.414   -28006495.836 9  19041344.075 8
  22887538.040    22887540.863    17411081.033 9 -14889545.189 8
  22124499.579    22124502.636    82432526.401 9-122921251.423 9
 90  3  9  9 30 14.0800000  0  4G 3G16G19G13
  20133146.655    20133150.331    20271005.492 9 -53732388.841 9
  20823334.650    20823337.869   -28054958.239 9  19003581.190 9
  22893248.350    22893251.741    17441088.374 9 -14866162.848 8
  22128526.000    22128528.871    82453682.453 9-122904766.213 8
 90  3  9  9 30 29.0800000  0  4G 3G16G19G13
  20132025.718    20132028.147    20265111.701 9 -53736981.414 8
  20814128.114    20814130.476   -28103341.974 9  18965879.588 9
  22898965.931    22898968.151    17471130.706 9 -14842753.234 8
  22132557.088    22132559.747    82474867.630 8-122888258.300 8
 90  3  9  9 30 44.0800000  0  4G 3G16G19G13
  20130912.152    20130913.399    20259258.387 9 -53741542.427 9
  20804935.956    20804939.219   -28151646.293 9  18928239.877 9
  22904688.205    22904691.769    17501207.782 9 -14819316.557 7
  22136593.279    22136597.029    82496082.325 8-122871727.398 8
 90  3  9  9 30 59.0800000  0  4G 3G16G19G13
  20129804.678    20129807.736    20253445.958 9 -53746071.592 9
  20795759.728    20795762.623   -28199870.898 9  18890662.285 9
  22910418.652    22910420.908    17531319.529 8 -14795852.847 7
  22140636.041    22140639.742    82517327.005 9-122855173.130 8
 90  3  9  9 31 14.0800000  0  4G 3G16G19G13
  20128706.648    20128709.198    20247674.125 9 -53750569.129 8
  20786598.153    20786600.748   -28248015.521 9  18853147.017 9
  22916155.449    22916155.750    17561465.326 9 -14772362.620 7
  22144683.797    22144688.379    82538601.274 9-122838595.794 7
 90  3  9  9 31 29.0800000  0  4G 3G16G19G13
  20127615.355    20127618.263    20241943.282 9 -53755034.716 8
  20777452.595    20777454.841   -28296079.909 9  18815694.264 9
  22921899.000    22921899.918    17591644.825 8 -14748846.105 7
  22148737.267    22148742.826    82559905.174 9-122821995.379 8
 90  3  9  9 31 44.0800000  0  4G 3G16G19G13
  20126532.297    20126534.837    20236253.946 9 -53759467.976 8
  20768321.012    20768324.689   -28344063.037 9  18778304.828 9
  22927648.001    22927649.406    17621858.143 8 -14725303.269 7
  22152797.841    22152802.618    82581239.210 8-122805371.490 9
 90  3  9  9 31 59.0800000  0  4G 3G16G19G13
  20125457.779    20125461.185    20230606.107 9 -53763868.887 9
  20759205.780    20759209.047   -28391964.818 9  18740978.783 9
  22933404.322    22933405.305    17652104.889 8 -14701734.356 7
  22156864.470    22156868.793    82602603.619 8-122788723.914 8
 90  3  9  9 32 14.0800000  0  4G 3G16G19G13
  20124390.771    20124394.692    20224999.533 9 -53768237.629 9
  20750105.524    20750109.240   -28439785.315 9  18703716.083 9
  22939166.729    22939166.703    17682384.505 8 -14678139.855 7
  22160936.245    22160940.061    82623998.091 9-122772052.906 8
 90  3  9  9 32 29.0800000  0  4G 3G16G19G13
  20123333.289    20123335.764    20219434.488 9 -53772574.030 8
  20741020.514    20741024.692   -28487524.008 9  18666517.124 9
  22944933.540    22944934.994    17712696.253 8 -14654520.306 7
  22165012.972    22165017.866    82645422.704 9-122755358.421 9
 90  3  9  9 32 44.0800000  0  4G 3G16G19G13
  20122281.326    20122285.579    20213910.956 9 -53776878.082 9
  20731953.226    20731956.837   -28535180.824 9  18629381.952 8
  22950707.541    22950710.978    17743039.702 9 -14630876.065 7
  22169095.702    22169100.811    82666877.340 9-122738640.539 8
 90  3  9  9 32 59.0800000  0  4G 3G16G19G13
  20121238.461    20121241.217    20208429.121 9 -53781149.642 9
  20722899.286    20722902.475   -28582754.864 9  18592311.271 9
  22956486.950    22956492.717    17773414.601 8 -14607207.313 8
  22173183.008    22173189.107    82688362.572 8-122721898.830 8
 90  3  9  9 33 14.0800000  0  4G 3G16G19G13
  20120204.969    20120206.462    20202989.431 8 -53785388.351 9
  20713862.275    20713865.062   -28630245.948 9  18555305.247 9
  22962272.749    22962276.294    17803821.073 9 -14583513.969 7
  22177275.849    22177282.916    82709878.756 9-122705133.006 9
 90  3  9  9 33 29.0800000  0  4G 3G16G19G13
  20119176.682    20119179.346    20197591.959 9 -53789594.173 9
  20704841.608    20704843.650   -28677653.672 9  18518364.169 9
  22968065.571    22968070.228    17834258.671 9 -14559796.360 8
  22181377.296    22181382.797    82731425.710 9-122688343.210 8
 90  3  9  9 33 44.0800000  0  4G 3G16G19G13
  20118157.900    20118160.481    20192236.610 9 -53793767.172 9
  20695835.965    20695838.345   -28724978.092 9  18481488.008 9
  22973864.210    22973868.371    17864726.593 8 -14536055.107 7
  22185484.011    22185488.127    82753003.201 8-122671529.587 8
 90  3  9  9 33 59.0800000  0  4G 3G16G19G13
  20117146.343    20117149.416    20186923.448 9 -53797907.308 9
  20686845.967    20686848.304   -28772218.670 9  18444677.183 9
  22979668.479    22979671.317    17895224.679 8 -14512290.372 8
  22189595.194    22189600.097    82774611.469 9-122654691.981 8
 90  3  9  9 34 14.0800000  0  4G 3G16G19G13
  20116143.767    20116145.773    20181652.866 9 -53802014.255 9
  20677872.243    20677875.325   -28819374.843 9  18407932.123 9
  22985477.966    22985480.277    17925752.736 8 -14488502.260 8
  22193714.364    22193718.105    82796250.706 9-122637830.254 9
 90  3  9  9 34 29.0800000  0  4G 3G16G19G13
  20115149.168    20115150.976    20176424.931 9 -53806087.975 9
  20668914.155    20668917.470   -28866446.622 9  18371252.828 9
  22991292.345    22991294.187    17956310.276 9 -14464691.189 7
  22197837.667    22197842.415    82817921.032 9-122620944.305 9
 90  3  9  9 34 44.0800000  0  4G 3G16G19G13
  20114162.156    20114165.013    20171239.945 9 -53810128.231 9
  20659972.616    20659975.411   -28913433.327 8  18334639.847 9
  22997112.424    22997114.886    17986897.024 9 -14440857.367 8
  22201968.081    22201971.682    82839622.636 9-122604033.985 9
 90  3  9  9 34 59.0800000  0  4G 3G16G19G13
  20113184.189    20113186.634    20166097.940 9 -53814134.987 8
  20651047.630    20651050.682   -28960334.612 9  18298093.410 9
  23002937.996    23002940.353    18017512.331 8 -14417001.293 8
  22206104.110    22206106.992    82861355.558 9-122587099.262 8
 90  3  9  9 35 14.0800000  0  4G 3G16G19G13
  20112212.853    20112216.018    20160998.631 9 -53818108.482 9
  20642139.203    20642141.244   -29007150.558 9  18261613.483 9
  23008769.665    23008771.925    18048155.728 9 -14393123.320 9
  22210245.347    22210247.352    82883119.635 9-122570140.241 8
 90  3  9  9 35 29.0800000  0  4G 3G16G19G13
  20111250.571    20111253.390    20155942.361 9 -53822048.417 8
  20633246.451    20633247.475   -29053880.760 9  18225200.356 9
  23014607.282    23014609.702    18078827.020 8 -14369223.631 8
  22214391.399    22214395.889    82904915.126 9-122553156.777 8
 90  3  9  9 35 44.0800000  0  4G 3G16G19G13
  20110296.938    20110299.841    20150929.488 9 -53825954.560 9
  20624371.249    20624372.385   -29100524.608 9  18188854.514 9
  23020448.352    23020451.196    18109526.041 9 -14345302.295 7
  22218543.878    22218548.903    82926741.943 9-122536148.893 9
 90  3  9  9 35 59.0800000  0  4G 3G16G19G13
  20109350.921    20109355.047    20145960.413 9 -53829826.555 9
  20615510.731    20615512.748   -29147081.551 9  18152576.391 9
  23026295.174    23026297.544    18140252.708 8 -14321359.437 7
  22222704.630    22222708.821    82948600.548 9-122519116.250 8
 90  3  9  9 36 14.0800000  0  4G 3G16G19G13
  20108413.289    20108416.533    20141035.093 8 -53833664.469 9
  20606667.983    20606670.234   -29193551.274 9  18116366.239 9
  23032146.983    23032150.454    18171006.547 9 -14297395.404 8
  22226870.102    22226873.648    82970490.953 9-122502058.824 8
 90  3  9  9 36 29.0800000  0  4G 3G16G19G13
  20107483.452    20107488.102    20136153.919 9 -53837467.982 9
  20597842.083    20597843.519   -29239933.493 9  18080224.257 9
  23038003.852    23038009.458    18201787.129 8 -14273410.534 7
  22231043.083    22231046.037    82992413.450 9-122484976.376 9
 90  3  9  9 36 44.0800000  0  4G 3G16G19G13
  20106564.615    20106567.614    20131316.712 9 -53841237.228 9
  20589032.924    20589034.360   -29286228.050 9  18044150.598 9
  23043868.329    23043870.561    18232593.934 8 -14249405.237 7
  22235221.905    22235223.256    83014367.846 9-122467869.082 9
 90  3  9  9 36 59.0800000  0  4G 3G16G19G13
  20105652.469    20105656.471    20126523.707 9 -53844972.017 9
  20580240.478    20580242.281   -29332434.511 9  18008145.572 8
  23049735.829    23049739.107    18263426.661 9 -14225379.737 8
  22239406.683    22239408.655    83036354.252 9-122450736.833 9
 90  3  9  9 37 14.0800000  0  4G 3G16G19G13
  20104749.330    20104751.189    20121774.949 8 -53848672.345 9
  20571464.317    20571466.010   -29378552.445 9  17972209.518 8
  23055608.719    23055611.424    18294285.189 9 -14201334.128 8
  22243597.550    22243597.815    83058373.054 9-122433579.345 9
 90  3  9  9 37 29.0800000  0  4G 3G16G19G13
  20103855.317    20103856.292    20117070.628 9 -53852338.048 9
  20562705.278    20562706.856   -29424581.617 9  17936342.641 9
  23061484.979    23061488.840    18325169.054 9 -14177268.785 8
  22247792.404    22247794.970    83080424.175 9-122416396.668 9
 90  3  9  9 37 44.0800000  0  4G 3G16G19G13
  20102968.495    20102969.792    20112410.954 9 -53855968.960 9
  20553962.810    20553966.392   -29470521.668 9  17900545.211 9
  23067365.833    23067371.319    18356077.869 9 -14153183.991 8
  22251993.632    22251997.574    83102507.650 9-122399188.790 9
 90  3  9  9 37 59.0800000  0  4G 3G16G19G13
  20102089.746    20102091.854    20107795.870 9 -53859565.138 9
  20545237.416    20545240.220   -29516372.404 9  17864817.370 9
  23073251.525    23073255.741    18387010.968 8 -14129080.294 8
  22256200.297    22256205.901    83124623.462 9-122381955.726 9
 90  3  9  9 38 14.0800000  0  4G 3G16G19G13
  20101219.432    20101221.691    20103225.361 9 -53863126.582 8
  20536528.644    20536531.842   -29562133.757 9  17829159.184 9
  23079142.429    23079146.649    18417967.679 8 -14104958.169 8
  22260413.871    22260420.886    83146771.493 9-122364697.560 9
 90  3  9  9 38 29.0800000  0  4G 3G16G19G13
  20100359.459    20100360.761    20098699.389 9 -53866653.333 9
  20527838.177    20527841.326   -29607805.383 9  17793570.934 9
  23085037.578    23085041.626    18448947.906 8 -14080817.737 8
  22264635.260    22264641.027    83168951.868 9-122347414.186 9
 90  3  9  9 38 44.0800000  0  4G 3G16G19G13
  20099505.727    20099507.885    20094218.544 9 -53870144.905 8
  20519163.156    20519167.372   -29653386.673 9  17758053.057 8
  23090937.572    23090942.068    18479951.452 8 -14056659.134 9
  22268862.722    22268868.077    83191164.836 8-122330105.417 9
 90  3  9  9 38 59.0800000  0  4G 3G16G19G13
  20098661.616    20098663.462    20089782.923 9 -53873601.246 9
  20510506.550    20510509.995   -29698877.156 9  17722605.943 8
  23096841.927    23096845.664    18510977.918 9 -14032482.682 7
  22273097.141    22273101.051    83213410.768 9-122312770.946 9
 90  3  9  9 39 14.0800000  0  4G 3G16G19G13
  20097827.480    20097829.241    20085392.478 9 -53877022.383 9
  20501867.292    20501871.361   -29744276.951 9  17687229.494 9
  23102749.409    23102753.043    18542026.583 8 -14008288.920 7
  22277338.105    22277340.561    83235689.383 9-122295411.010 8
 90  3  9  9 39 29.0800000  0  4G 3G16G19G13
  20096999.972    20097002.322    20081047.216 9 -53880408.311 8
  20493245.944    20493248.928   -29789585.887 9  17651923.830 9
  23108662.970    23108666.135    18573097.137 8 -13984078.082 7
  22281583.110    22281586.642    83258000.472 9-122278025.774 8
 90  3  9  9 39 44.0800000  0  4G 3G16G19G13
  20096179.772    20096183.336    20076747.331 9 -53883758.875 9
  20484642.222    20484644.373   -29834803.251 9  17616689.527 8
  23114579.926    23114582.432    18604189.494 8 -13959850.285 8
  22285836.080    22285838.018    83280344.342 9-122260614.977 8
 90  3  9  9 39 59.0800000  0  4G 3G16G19G13
  20095370.159    20095374.356    20072493.421 9 -53887073.616 9
  20476054.875    20476057.226   -29879928.618 9  17581526.924 9
  23120500.678    23120501.751    18635303.371 9 -13935605.698 8
  22290093.989    22290096.216    83302721.566 9-122243178.194 7
 90  3  9  9 40 14.0800000  0  4G 3G16G19G13
  20094569.077    20094574.882    20068285.264 9 -53890352.696 9
  20467485.485    20467488.338   -29924961.700 9  17546436.218 9
  23126426.181    23126427.996    18666438.296 9 -13911344.742 7
  22294357.493    22294360.361    83325131.826 9-122225715.660 9
 90  3  9  9 40 29.0800000  0  4G 3G16G19G13
  20093777.125    20093782.124    20064122.974 8 -53893596.024 9
  20458933.702    20458935.275   -29969902.181 9  17511417.665 9
  23132354.489    23132355.562    18697593.827 8 -13887067.680 8
  22298627.484    22298631.477    83347575.162 9-122208227.356 8
 90  3  9  9 40 44.0800000  0  4G 3G16G19G13
  20092993.897    20092997.211    20060007.059 9 -53896803.232 9
  20450398.742    20450402.129   -30014749.657 9  17476471.587 8
  23138287.185    23138289.191    18728770.077 9 -13862774.520 7
  22302905.097    22302908.804    83370052.103 9-122190712.887 8
